Wetterdaten: Donnerstag, 14.11.2013
Datum Zeit Temp. Aussen +5cm Feuchte Auss Luftdruck Regen Sonnenschein Regendauer UV Solar Windben
14.11.2013 00:00 1,9 C 1,1 C 98 % 1027,3 hPa 0,0 l/m 0 min 0 min 0,0 UV-I 0 W/m 5,1 km/h (1 Bft)
14.11.2013 00:02 1,9 C 1,1 C 98 % 1027,4 hPa 0,0 l/m 0 min 0 min 0,0 UV-I 0 W/m 5,1 km/h (1 Bft)
14.11.2013 00:06 1,8 C 1,1 C 98 % 1027,4 hPa 0,0 l/m 0 min 0 min 0,0 UV-I 0 W/m 5,1 km/h (1 Bft)
14.11.2013 00:08 1,8 C 1,1 C 98 % 1027,3 hPa 0,0 l/m 0 min 0 min 0,0 UV-I 0 W/m 0,0 km/h (0 Bft)
14.11.2013 00:10 1,7 C 1,1 C 98 % 1027,3 hPa 0,0 l/m 0 min 0 min 0,0 UV-I 0 W/m 7,7 km/h (2 Bft)
14.11.2013 00:12 1,7 C 1,1 C 98 % 1027,4 hPa 0,0 l/m 0 min 0 min 0,0 UV-I 0 W/m 5,1 km/h (1 Bft)
14.11.2013 00:14 1,6 C 1,1 C 98 % 1027,3 hPa 0,0 l/m 0 min 0 min 0,0 UV-I 0 W/m 2,6 km/h (1 Bft)
14.11.2013 00:16 1,6 C 0,6 C 98 % 1027,3 hPa 0,0 l/m 0 min 0 min 0,0 UV-I 0 W/m 2,6 km/h (1 Bft)
14.11.2013 00:18 1,5 C 0,6 C 98 % 1027,3 hPa 0,0 l/m 0 min 0 min 0,0 UV-I 0 W/m 7,7 km/h (2 Bft)
14.11.2013 00:20 1,4 C 0,6 C 98 % 1027,3 hPa 0,0 l/m 0 min 0 min 0,0 UV-I 0 W/m 2,6 km/h (1 Bft)
14.11.2013 00:22 1,4 C 0,6 C 98 % 1027,3 hPa 0,0 l/m 0 min 0 min 0,0 UV-I 0 W/m 7,7 km/h (2 Bft)
14.11.2013 00:24 1,4 C 0,6 C 98 % 1027,3 hPa 0,0 l/m 0 min 0 min 0,0 UV-I 0 W/m 5,1 km/h (1 Bft)
14.11.2013 00:26 1,3 C 0,6 C 98 % 1027,2 hPa 0,0 l/m 0 min 0 min 0,0 UV-I 0 W/m 5,1 km/h (1 Bft)
14.11.2013 00:28 1,3 C 0,6 C 98 % 1027,2 hPa 0,0 l/m 0 min 0 min 0,0 UV-I 0 W/m 2,6 km/h (1 Bft)
14.11.2013 00:30 1,3 C 0,6 C 98 % 1027,2 hPa 0,0 l/m 0 min 0 min 0,0 UV-I 0 W/m 0,0 km/h (0 Bft)
14.11.2013 00:32 1,3 C 0,6 C 98 % 1027,3 hPa 0,0 l/m 0 min 0 min 0,0 UV-I 0 W/m 5,1 km/h (1 Bft)
14.11.2013 00:34 1,3 C 0,6 C 98 % 1027,2 hPa 0,0 l/m 0 min 0 min 0,0 UV-I 0 W/m 0,0 km/h (0 Bft)
14.11.2013 00:36 1,3 C 0,6 C 98 % 1027,2 hPa 0,0 l/m 0 min 0 min 0,0 UV-I 0 W/m 2,6 km/h (1 Bft)
14.11.2013 00:38 1,3 C 0,6 C 98 % 1027,2 hPa 0,0 l/m 0 min 0 min 0,0 UV-I 0 W/m 5,1 km/h (1 Bft)
14.11.2013 00:40 1,3 C 0,6 C 98 % 1027,2 hPa 0,0 l/m 0 min 0 min 0,0 UV-I 0 W/m 5,1 km/h (1 Bft)
14.11.2013 00:42 1,2 C 0,6 C 98 % 1027,2 hPa 0,0 l/m 0 min 0 min 0,0 UV-I 0 W/m 5,1 km/h (1 Bft)
14.11.2013 00:44 1,3 C 0,6 C 98 % 1027,0 hPa 0,0 l/m 0 min 0 min 0,0 UV-I 0 W/m 0,0 km/h (0 Bft)
14.11.2013 00:46 1,2 C 0,6 C 98 % 1027,0 hPa 0,0 l/m 0 min 0 min 0,0 UV-I 0 W/m 7,7 km/h (2 Bft)
14.11.2013 00:48 1,2 C 0,6 C 98 % 1027,1 hPa 0,0 l/m 0 min 0 min 0,0 UV-I 0 W/m 10,3 km/h (2 Bft)
14.11.2013 00:50 1,2 C 0,6 C 98 % 1027,1 hPa 0,0 l/m 0 min 0 min 0,0 UV-I 0 W/m 10,3 km/h (2 Bft)
14.11.2013 00:52 1,2 C 0,6 C 98 % 1027,0 hPa 0,0 l/m 0 min 0 min 0,0 UV-I 0 W/m 15,4 km/h (3 Bft)
14.11.2013 00:54 1,2 C 0,6 C 98 % 1026,9 hPa 0,0 l/m 0 min 0 min 0,0 UV-I 0 W/m 7,7 km/h (2 Bft)
14.11.2013 00:56 1,1 C 0,6 C 98 % 1026,9 hPa 0,0 l/m 0 min 0 min 0,0 UV-I 0 W/m 12,9 km/h (3 Bft)
14.11.2013 00:58 1,1 C 0,6 C 98 % 1026,9 hPa 0,0 l/m 0 min 0 min 0,0 UV-I 0 W/m 2,6 km/h (1 Bft)
14.11.2013 01:00 1,1 C 0,6 C 98 % 1026,8 hPa 0,0 l/m 0 min 0 min 0,0 UV-I 0 W/m 12,9 km/h (3 Bft)
14.11.2013 01:02 1,1 C 0,6 C 98 % 1026,8 hPa 0,0 l/m 0 min 0 min 0,0 UV-I 0 W/m 7,7 km/h (2 Bft)
14.11.2013 01:04 1,1 C 0,6 C 98 % 1026,7 hPa 0,0 l/m 0 min 0 min 0,0 UV-I 0 W/m 7,7 km/h (2 Bft)
14.11.2013 01:06 1,0 C 0,6 C 98 % 1026,7 hPa 0,0 l/m 0 min 0 min 0,0 UV-I 0 W/m 7,7 km/h (2 Bft)
14.11.2013 01:08 1,0 C 0,6 C 98 % 1026,8 hPa 0,0 l/m 0 min 0 min 0,0 UV-I 0 W/m 0,0 km/h (0 Bft)
14.11.2013 01:10 1,0 C 0,6 C 98 % 1026,7 hPa 0,0 l/m 0 min 0 min 0,0 UV-I 0 W/m 7,7 km/h (2 Bft)
14.11.2013 01:12 0,9 C 0,6 C 98 % 1026,8 hPa 0,0 l/m 0 min 0 min 0,0 UV-I 0 W/m 7,7 km/h (2 Bft)
14.11.2013 01:14 0,9 C 0,6 C 98 % 1026,7 hPa 0,0 l/m 0 min 0 min 0,0 UV-I 0 W/m 10,3 km/h (2 Bft)
14.11.2013 01:16 0,9 C 0,6 C 98 % 1026,7 hPa 0,0 l/m 0 min 0 min 0,0 UV-I 0 W/m 5,1 km/h (1 Bft)
14.11.2013 01:18 0,9 C 0,6 C 98 % 1026,7 hPa 0,0 l/m 0 min 0 min 0,0 UV-I 0 W/m 7,7 km/h (2 Bft)
14.11.2013 01:20 0,9 C 0,6 C 98 % 1026,7 hPa 0,0 l/m 0 min 0 min 0,0 UV-I 0 W/m 0,0 km/h (0 Bft)
14.11.2013 01:22 0,9 C 0,6 C 98 % 1026,7 hPa 0,0 l/m 0 min 0 min 0,0 UV-I 0 W/m 5,1 km/h (1 Bft)
14.11.2013 01:24 0,9 C 0,6 C 98 % 1026,7 hPa 0,0 l/m 0 min 0 min 0,0 UV-I 0 W/m 5,1 km/h (1 Bft)
14.11.2013 01:26 0,9 C 0,6 C 98 % 1026,5 hPa 0,0 l/m 0 min 0 min 0,0 UV-I 0 W/m 7,7 km/h (2 Bft)
14.11.2013 01:28 0,9 C 0,0 C 98 % 1026,4 hPa 0,0 l/m 0 min 0 min 0,0 UV-I 0 W/m 2,6 km/h (1 Bft)
14.11.2013 01:30 0,9 C 0,0 C 98 % 1026,5 hPa 0,0 l/m 0 min 0 min 0,0 UV-I 0 W/m 7,7 km/h (2 Bft)
14.11.2013 01:32 0,9 C 0,6 C 98 % 1026,4 hPa 0,0 l/m 0 min 0 min 0,0 UV-I 0 W/m 2,6 km/h (1 Bft)
14.11.2013 01:34 0,9 C 0,6 C 98 % 1026,3 hPa 0,0 l/m 0 min 0 min 0,0 UV-I 0 W/m 10,3 km/h (2 Bft)
14.11.2013 01:36 0,9 C 0,6 C 98 % 1026,3 hPa 0,0 l/m 0 min 0 min 0,0 UV-I 0 W/m 7,7 km/h (2 Bft)
14.11.2013 01:38 0,8 C 0,0 C 98 % 1026,3 hPa 0,0 l/m 0 min 0 min 0,0 UV-I 0 W/m 5,1 km/h (1 Bft)
14.11.2013 01:40 0,9 C 0,6 C 98 % 1026,2 hPa 0,0 l/m 0 min 0 min 0,0 UV-I 0 W/m 5,1 km/h (1 Bft)
14.11.2013 01:42 0,9 C 0,6 C 98 % 1026,3 hPa 0,0 l/m 0 min 0 min 0,0 UV-I 0 W/m 0,0 km/h (0 Bft)
14.11.2013 01:44 0,9 C 0,6 C 98 % 1026,3 hPa 0,0 l/m 0 min 0 min 0,0 UV-I 0 W/m 0,0 km/h (0 Bft)
14.11.2013 01:46 0,9 C 0,6 C 98 % 1026,2 hPa 0,0 l/m 0 min 0 min 0,0 UV-I 0 W/m 5,1 km/h (1 Bft)
14.11.2013 01:48 0,9 C 0,6 C 98 % 1026,3 hPa 0,0 l/m 0 min 0 min 0,0 UV-I 0 W/m 0,0 km/h (0 Bft)
14.11.2013 01:50 0,9 C 0,6 C 98 % 1026,2 hPa 0,0 l/m 0 min 0 min 0,0 UV-I 0 W/m 0,0 km/h (0 Bft)
14.11.2013 01:52 0,9 C 0,6 C 98 % 1026,3 hPa 0,0 l/m 0 min 0 min 0,0 UV-I 0 W/m 2,6 km/h (1 Bft)
14.11.2013 01:54 0,9 C 0,6 C 98 % 1026,3 hPa 0,0 l/m 0 min 0 min 0,0 UV-I 0 W/m 2,6 km/h (1 Bft)
14.11.2013 01:56 0,9 C 0,6 C 98 % 1026,3 hPa 0,0 l/m 0 min 0 min 0,0 UV-I 0 W/m 5,1 km/h (1 Bft)
14.11.2013 01:58 0,9 C 0,6 C 98 % 1026,3 hPa 0,0 l/m 0 min 0 min 0,0 UV-I 0 W/m 0,0 km/h (0 Bft)
14.11.2013 02:00 0,9 C 0,6 C 98 % 1026,2 hPa 0,0 l/m 0 min 0 min 0,0 UV-I 0 W/m 0,0 km/h (0 Bft)
14.11.2013 02:02 0,9 C 0,6 C 98 % 1026,2 hPa 0,0 l/m 0 min 0 min 0,0 UV-I 0 W/m 0,0 km/h (0 Bft)
14.11.2013 02:04 0,9 C 0,6 C 98 % 1026,1 hPa 0,0 l/m 0 min 0 min 0,0 UV-I 0 W/m 5,1 km/h (1 Bft)
14.11.2013 02:06 0,9 C 0,6 C 98 % 1026,1 hPa 0,0 l/m 0 min 0 min 0,0 UV-I 0 W/m 2,6 km/h (1 Bft)
14.11.2013 02:08 0,9 C 0,6 C 98 % 1026,1 hPa 0,0 l/m 0 min 0 min 0,0 UV-I 0 W/m 0,0 km/h (0 Bft)
14.11.2013 02:10 0,9 C 0,6 C 98 % 1026,1 hPa 0,0 l/m 0 min 0 min 0,0 UV-I 0 W/m 5,1 km/h (1 Bft)
14.11.2013 02:12 0,9 C 0,6 C 98 % 1026,0 hPa 0,0 l/m 0 min 0 min 0,0 UV-I 0 W/m 0,0 km/h (0 Bft)
14.11.2013 02:14 0,9 C 0,6 C 98 % 1025,9 hPa 0,0 l/m 0 min 0 min 0,0 UV-I 0 W/m 0,0 km/h (0 Bft)
14.11.2013 02:16 0,9 C 0,6 C 98 % 1025,9 hPa 0,0 l/m 0 min 0 min 0,0 UV-I 0 W/m 2,6 km/h (1 Bft)
14.11.2013 02:18 0,9 C 0,6 C 98 % 1025,8 hPa 0,0 l/m 0 min 0 min 0,0 UV-I 0 W/m 10,3 km/h (2 Bft)
14.11.2013 02:20 0,9 C 0,6 C 98 % 1025,8 hPa 0,0 l/m 0 min 0 min 0,0 UV-I 0 W/m 2,6 km/h (1 Bft)
14.11.2013 02:22 1,0 C 0,6 C 98 % 1025,7 hPa 0,0 l/m 0 min 0 min 0,0 UV-I 0 W/m 10,3 km/h (2 Bft)
14.11.2013 02:24 1,0 C 0,6 C 98 % 1025,6 hPa 0,0 l/m 0 min 2 min 0,0 UV-I 0 W/m 7,7 km/h (2 Bft)
14.11.2013 02:26 1,0 C 0,6 C 98 % 1025,5 hPa 0,2 l/m 0 min 2 min 0,0 UV-I 0 W/m 12,9 km/h (3 Bft)
14.11.2013 02:28 1,0 C 0,6 C 98 % 1025,5 hPa 0,0 l/m 0 min 2 min 0,0 UV-I 0 W/m 10,3 km/h (2 Bft)
14.11.2013 02:30 1,0 C 0,6 C 98 % 1025,5 hPa 0,0 l/m 0 min 0 min 0,0 UV-I 0 W/m 7,7 km/h (2 Bft)
14.11.2013 02:32 1,1 C 0,6 C 98 % 1025,5 hPa 0,0 l/m 0 min 0 min 0,0 UV-I 0 W/m 2,6 km/h (1 Bft)
14.11.2013 02:34 1,1 C 0,6 C 98 % 1025,5 hPa 0,0 l/m 0 min 0 min 0,0 UV-I 0 W/m 0,0 km/h (0 Bft)
14.11.2013 02:36 1,1 C 0,6 C 98 % 1025,4 hPa 0,0 l/m 0 min 0 min 0,0 UV-I 0 W/m 7,7 km/h (2 Bft)
14.11.2013 02:38 1,1 C 0,6 C 98 % 1025,3 hPa 0,0 l/m 0 min 0 min 0,0 UV-I 0 W/m 7,7 km/h (2 Bft)
14.11.2013 02:40 1,1 C 0,6 C 98 % 1025,2 hPa 0,0 l/m 0 min 0 min 0,0 UV-I 0 W/m 0,0 km/h (0 Bft)
14.11.2013 02:42 1,1 C 0,6 C 98 % 1025,3 hPa 0,0 l/m 0 min 0 min 0,0 UV-I 0 W/m 5,1 km/h (1 Bft)
14.11.2013 02:44 1,1 C 0,6 C 98 % 1025,2 hPa 0,0 l/m 0 min 0 min 0,0 UV-I 0 W/m 5,1 km/h (1 Bft)
14.11.2013 02:46 1,1 C 0,6 C 98 % 1025,2 hPa 0,0 l/m 0 min 0 min 0,0 UV-I 0 W/m 5,1 km/h (1 Bft)
14.11.2013 02:48 1,1 C 0,6 C 98 % 1025,1 hPa 0,0 l/m 0 min 0 min 0,0 UV-I 0 W/m 7,7 km/h (2 Bft)
14.11.2013 02:50 1,1 C 0,6 C 98 % 1025,1 hPa 0,0 l/m 0 min 0 min 0,0 UV-I 0 W/m 0,0 km/h (0 Bft)
14.11.2013 02:52 1,1 C 0,6 C 98 % 1025,1 hPa 0,0 l/m 0 min 0 min 0,0 UV-I 0 W/m 7,7 km/h (2 Bft)
14.11.2013 02:54 1,1 C 0,6 C 98 % 1025,0 hPa 0,0 l/m 0 min 0 min 0,0 UV-I 0 W/m 12,9 km/h (3 Bft)
14.11.2013 02:56 1,2 C 0,6 C 98 % 1024,9 hPa 0,0 l/m 0 min 0 min 0,0 UV-I 0 W/m 7,7 km/h (2 Bft)
14.11.2013 02:58 1,2 C 0,6 C 98 % 1024,8 hPa 0,0 l/m 0 min 0 min 0,0 UV-I 0 W/m 7,7 km/h (2 Bft)
14.11.2013 03:00 1,2 C 0,6 C 98 % 1024,8 hPa 0,0 l/m 0 min 0 min 0,0 UV-I 0 W/m 7,7 km/h (2 Bft)
14.11.2013 03:02 1,2 C 0,6 C 98 % 1024,7 hPa 0,0 l/m 0 min 0 min 0,0 UV-I 0 W/m 5,1 km/h (1 Bft)
14.11.2013 03:04 1,2 C 0,6 C 98 % 1024,7 hPa 0,0 l/m 0 min 0 min 0,0 UV-I 0 W/m 10,3 km/h (2 Bft)
14.11.2013 03:06 1,2 C 0,6 C 98 % 1024,6 hPa 0,0 l/m 0 min 0 min 0,0 UV-I 0 W/m 10,3 km/h (2 Bft)
14.11.2013 03:08 1,2 C 0,6 C 98 % 1024,6 hPa 0,0 l/m 0 min 0 min 0,0 UV-I 0 W/m 5,1 km/h (1 Bft)
14.11.2013 03:10 1,2 C 0,6 C 98 % 1024,6 hPa 0,0 l/m 0 min 0 min 0,0 UV-I 0 W/m 5,1 km/h (1 Bft)
14.11.2013 03:12 1,3 C 0,6 C 98 % 1024,5 hPa 0,0 l/m 0 min 0 min 0,0 UV-I 0 W/m 12,9 km/h (3 Bft)
14.11.2013 03:14 1,2 C 0,6 C 98 % 1024,5 hPa 0,0 l/m 0 min 0 min 0,0 UV-I 0 W/m 7,7 km/h (2 Bft)
14.11.2013 03:16 1,2 C 0,6 C 98 % 1024,3 hPa 0,0 l/m 0 min 0 min 0,0 UV-I 0 W/m 7,7 km/h (2 Bft)
14.11.2013 03:18 1,3 C 0,6 C 98 % 1024,3 hPa 0,0 l/m 0 min 0 min 0,0 UV-I 0 W/m 5,1 km/h (1 Bft)
14.11.2013 03:20 1,3 C 0,6 C 98 % 1024,3 hPa 0,0 l/m 0 min 0 min 0,0 UV-I 0 W/m 0,0 km/h (0 Bft)
14.11.2013 03:22 1,2 C 0,6 C 98 % 1024,2 hPa 0,0 l/m 0 min 0 min 0,0 UV-I 0 W/m 5,1 km/h (1 Bft)
14.11.2013 03:24 1,2 C 0,6 C 98 % 1024,3 hPa 0,0 l/m 0 min 0 min 0,0 UV-I 0 W/m 10,3 km/h (2 Bft)
14.11.2013 03:26 1,2 C 0,6 C 98 % 1024,4 hPa 0,0 l/m 0 min 0 min 0,0 UV-I 0 W/m 10,3 km/h (2 Bft)
14.11.2013 03:28 1,3 C 0,6 C 98 % 1024,3 hPa 0,0 l/m 0 min 0 min 0,0 UV-I 0 W/m 2,6 km/h (1 Bft)
14.11.2013 03:30 1,3 C 0,6 C 98 % 1024,3 hPa 0,0 l/m 0 min 0 min 0,0 UV-I 0 W/m 7,7 km/h (2 Bft)
14.11.2013 03:32 1,3 C 0,6 C 99 % 1024,2 hPa 0,0 l/m 0 min 0 min 0,0 UV-I 0 W/m 2,6 km/h (1 Bft)
14.11.2013 03:34 1,3 C 0,6 C 99 % 1024,2 hPa 0,0 l/m 0 min 0 min 0,0 UV-I 0 W/m 5,1 km/h (1 Bft)
14.11.2013 03:36 1,3 C 0,6 C 99 % 1024,2 hPa 0,0 l/m 0 min 0 min 0,0 UV-I 0 W/m 2,6 km/h (1 Bft)
14.11.2013 03:38 1,3 C 0,6 C 99 % 1024,2 hPa 0,0 l/m 0 min 0 min 0,0 UV-I 0 W/m 0,0 km/h (0 Bft)
14.11.2013 03:40 1,3 C 0,6 C 99 % 1024,3 hPa 0,0 l/m 0 min 0 min 0,0 UV-I 0 W/m 0,0 km/h (0 Bft)
14.11.2013 03:42 1,4 C 0,6 C 99 % 1024,3 hPa 0,0 l/m 0 min 0 min 0,0 UV-I 0 W/m 0,0 km/h (0 Bft)
14.11.2013 03:44 1,4 C 0,6 C 99 % 1024,3 hPa 0,0 l/m 0 min 0 min 0,0 UV-I 0 W/m 0,0 km/h (0 Bft)
14.11.2013 03:46 1,4 C 1,1 C 99 % 1024,2 hPa 0,0 l/m 0 min 0 min 0,0 UV-I 0 W/m 2,6 km/h (1 Bft)
14.11.2013 03:48 1,4 C 1,1 C 99 % 1024,1 hPa 0,0 l/m 0 min 0 min 0,0 UV-I 0 W/m 10,3 km/h (2 Bft)
14.11.2013 03:50 1,4 C 1,1 C 99 % 1024,1 hPa 0,0 l/m 0 min 0 min 0,0 UV-I 0 W/m 10,3 km/h (2 Bft)
14.11.2013 03:52 1,4 C 0,6 C 99 % 1024,0 hPa 0,0 l/m 0 min 0 min 0,0 UV-I 0 W/m 5,1 km/h (1 Bft)
14.11.2013 03:54 1,4 C 0,6 C 99 % 1023,9 hPa 0,0 l/m 0 min 0 min 0,0 UV-I 0 W/m 10,3 km/h (2 Bft)
14.11.2013 03:56 1,4 C 0,6 C 99 % 1023,9 hPa 0,0 l/m 0 min 0 min 0,0 UV-I 0 W/m 12,9 km/h (3 Bft)
14.11.2013 03:58 1,4 C 1,1 C 99 % 1023,8 hPa 0,0 l/m 0 min 0 min 0,0 UV-I 0 W/m 7,7 km/h (2 Bft)
14.11.2013 04:00 1,4 C 1,1 C 99 % 1023,9 hPa 0,0 l/m 0 min 0 min 0,0 UV-I 0 W/m 10,3 km/h (2 Bft)
14.11.2013 04:02 1,4 C 1,1 C 99 % 1024,0 hPa 0,0 l/m 0 min 0 min 0,0 UV-I 0 W/m 5,1 km/h (1 Bft)
14.11.2013 04:04 1,4 C 1,1 C 99 % 1023,9 hPa 0,0 l/m 0 min 0 min 0,0 UV-I 0 W/m 7,7 km/h (2 Bft)
14.11.2013 04:06 1,4 C 1,1 C 99 % 1023,9 hPa 0,0 l/m 0 min 0 min 0,0 UV-I 0 W/m 0,0 km/h (0 Bft)
14.11.2013 04:08 1,4 C 1,1 C 99 % 1023,9 hPa 0,0 l/m 0 min 0 min 0,0 UV-I 0 W/m 12,9 km/h (3 Bft)
14.11.2013 04:10 1,4 C 1,1 C 99 % 1024,0 hPa 0,0 l/m 0 min 0 min 0,0 UV-I 0 W/m 7,7 km/h (2 Bft)
14.11.2013 04:12 1,4 C 1,1 C 99 % 1023,9 hPa 0,0 l/m 0 min 0 min 0,0 UV-I 0 W/m 0,0 km/h (0 Bft)
14.11.2013 04:14 1,4 C 1,1 C 98 % 1023,9 hPa 0,0 l/m 0 min 0 min 0,0 UV-I 0 W/m 5,1 km/h (1 Bft)
14.11.2013 04:16 1,4 C 1,1 C 98 % 1023,8 hPa 0,0 l/m 0 min 0 min 0,0 UV-I 0 W/m 0,0 km/h (0 Bft)
14.11.2013 04:18 1,4 C 1,1 C 98 % 1023,7 hPa 0,0 l/m 0 min 0 min 0,0 UV-I 0 W/m 0,0 km/h (0 Bft)
14.11.2013 04:20 1,5 C 1,1 C 98 % 1023,7 hPa 0,0 l/m 0 min 0 min 0,0 UV-I 0 W/m 5,1 km/h (1 Bft)
14.11.2013 04:22 1,5 C 1,1 C 98 % 1023,7 hPa 0,0 l/m 0 min 0 min 0,0 UV-I 0 W/m 0,0 km/h (0 Bft)
14.11.2013 04:24 1,5 C 1,1 C 98 % 1023,6 hPa 0,0 l/m 0 min 0 min 0,0 UV-I 0 W/m 0,0 km/h (0 Bft)
14.11.2013 04:26 1,5 C 1,1 C 98 % 1023,6 hPa 0,0 l/m 0 min 0 min 0,0 UV-I 0 W/m 7,7 km/h (2 Bft)
14.11.2013 04:28 1,5 C 1,1 C 98 % 1023,6 hPa 0,0 l/m 0 min 0 min 0,0 UV-I 0 W/m 5,1 km/h (1 Bft)
14.11.2013 04:30 1,5 C 1,1 C 98 % 1023,6 hPa 0,0 l/m 0 min 0 min 0,0 UV-I 0 W/m 7,7 km/h (2 Bft)
14.11.2013 04:32 1,5 C 1,1 C 98 % 1023,6 hPa 0,0 l/m 0 min 0 min 0,0 UV-I 0 W/m 2,6 km/h (1 Bft)
14.11.2013 04:34 1,5 C 1,1 C 98 % 1023,5 hPa 0,0 l/m 0 min 0 min 0,0 UV-I 0 W/m 0,0 km/h (0 Bft)
14.11.2013 04:36 1,6 C 1,1 C 98 % 1023,4 hPa 0,0 l/m 0 min 0 min 0,0 UV-I 0 W/m 7,7 km/h (2 Bft)
14.11.2013 04:38 1,6 C 1,1 C 98 % 1023,4 hPa 0,0 l/m 0 min 0 min 0,0 UV-I 0 W/m 0,0 km/h (0 Bft)
14.11.2013 04:40 1,6 C 1,1 C 98 % 1023,4 hPa 0,0 l/m 0 min 0 min 0,0 UV-I 0 W/m 0,0 km/h (0 Bft)
14.11.2013 04:42 1,6 C 1,1 C 98 % 1023,4 hPa 0,0 l/m 0 min 0 min 0,0 UV-I 0 W/m 0,0 km/h (0 Bft)
14.11.2013 04:44 1,6 C 1,1 C 98 % 1023,4 hPa 0,0 l/m 0 min 0 min 0,0 UV-I 0 W/m 2,6 km/h (1 Bft)
14.11.2013 04:46 1,6 C 1,1 C 98 % 1023,5 hPa 0,0 l/m 0 min 0 min 0,0 UV-I 0 W/m 0,0 km/h (0 Bft)
14.11.2013 04:48 1,6 C 1,1 C 98 % 1023,4 hPa 0,0 l/m 0 min 0 min 0,0 UV-I 0 W/m 0,0 km/h (0 Bft)
14.11.2013 04:50 1,6 C 1,1 C 98 % 1023,4 hPa 0,0 l/m 0 min 0 min 0,0 UV-I 0 W/m 0,0 km/h (0 Bft)
14.11.2013 04:52 1,6 C 1,1 C 99 % 1023,4 hPa 0,0 l/m 0 min 0 min 0,0 UV-I 0 W/m 0,0 km/h (0 Bft)
14.11.2013 04:54 1,6 C 1,1 C 99 % 1023,3 hPa 0,0 l/m 0 min 0 min 0,0 UV-I 0 W/m 0,0 km/h (0 Bft)
14.11.2013 04:56 1,7 C 1,1 C 99 % 1023,3 hPa 0,0 l/m 0 min 0 min 0,0 UV-I 0 W/m 0,0 km/h (0 Bft)
14.11.2013 04:58 1,7 C 1,1 C 99 % 1023,3 hPa 0,0 l/m 0 min 0 min 0,0 UV-I 0 W/m 0,0 km/h (0 Bft)
14.11.2013 05:00 1,7 C 1,1 C 99 % 1023,3 hPa 0,0 l/m 0 min 0 min 0,0 UV-I 0 W/m 0,0 km/h (0 Bft)
14.11.2013 05:02 1,7 C 1,1 C 99 % 1023,2 hPa 0,0 l/m 0 min 0 min 0,0 UV-I 0 W/m 0,0 km/h (0 Bft)
14.11.2013 05:04 1,7 C 1,1 C 99 % 1023,2 hPa 0,0 l/m 0 min 0 min 0,0 UV-I 0 W/m 0,0 km/h (0 Bft)
14.11.2013 05:06 1,6 C 1,1 C 99 % 1023,0 hPa 0,0 l/m 0 min 0 min 0,0 UV-I 0 W/m 2,6 km/h (1 Bft)
14.11.2013 05:08 1,6 C 1,1 C 99 % 1023,0 hPa 0,0 l/m 0 min 0 min 0,0 UV-I 0 W/m 5,1 km/h (1 Bft)
14.11.2013 05:10 1,6 C 1,1 C 99 % 1023,0 hPa 0,0 l/m 0 min 0 min 0,0 UV-I 0 W/m 0,0 km/h (0 Bft)
14.11.2013 05:12 1,5 C 1,1 C 99 % 1022,9 hPa 0,0 l/m 0 min 0 min 0,0 UV-I 0 W/m 2,6 km/h (1 Bft)
14.11.2013 05:14 1,5 C 1,1 C 99 % 1022,9 hPa 0,0 l/m 0 min 0 min 0,0 UV-I 0 W/m 10,3 km/h (2 Bft)
14.11.2013 05:16 1,4 C 0,6 C 99 % 1022,8 hPa 0,0 l/m 0 min 0 min 0,0 UV-I 0 W/m 10,3 km/h (2 Bft)
14.11.2013 05:18 1,4 C 1,1 C 99 % 1022,9 hPa 0,0 l/m 0 min 0 min 0,0 UV-I 0 W/m 2,6 km/h (1 Bft)
14.11.2013 05:20 1,4 C 1,1 C 99 % 1022,8 hPa 0,0 l/m 0 min 0 min 0,0 UV-I 0 W/m 0,0 km/h (0 Bft)
14.11.2013 05:22 1,4 C 1,1 C 99 % 1022,7 hPa 0,0 l/m 0 min 0 min 0,0 UV-I 0 W/m 0,0 km/h (0 Bft)
14.11.2013 05:24 1,4 C 1,1 C 99 % 1022,7 hPa 0,0 l/m 0 min 0 min 0,0 UV-I 0 W/m 0,0 km/h (0 Bft)
14.11.2013 05:26 1,4 C 1,1 C 99 % 1022,7 hPa 0,0 l/m 0 min 0 min 0,0 UV-I 0 W/m 7,7 km/h (2 Bft)
14.11.2013 05:28 1,4 C 1,1 C 99 % 1022,6 hPa 0,0 l/m 0 min 0 min 0,0 UV-I 0 W/m 10,3 km/h (2 Bft)
14.11.2013 05:30 1,4 C 1,1 C 99 % 1022,6 hPa 0,0 l/m 0 min 0 min 0,0 UV-I 0 W/m 5,1 km/h (1 Bft)
14.11.2013 05:32 1,5 C 1,1 C 99 % 1022,5 hPa 0,0 l/m 0 min 0 min 0,0 UV-I 0 W/m 2,6 km/h (1 Bft)
14.11.2013 05:34 1,5 C 1,1 C 99 % 1022,5 hPa 0,0 l/m 0 min 0 min 0,0 UV-I 0 W/m 7,7 km/h (2 Bft)
14.11.2013 05:36 1,4 C 1,1 C 99 % 1022,5 hPa 0,0 l/m 0 min 0 min 0,0 UV-I 0 W/m 5,1 km/h (1 Bft)
14.11.2013 05:38 1,5 C 1,1 C 99 % 1022,4 hPa 0,0 l/m 0 min 0 min 0,0 UV-I 0 W/m 0,0 km/h (0 Bft)
14.11.2013 05:40 1,4 C 1,1 C 99 % 1022,4 hPa 0,0 l/m 0 min 0 min 0,0 UV-I 0 W/m 0,0 km/h (0 Bft)
14.11.2013 05:42 1,4 C 1,1 C 99 % 1022,3 hPa 0,0 l/m 0 min 2 min 0,0 UV-I 0 W/m 0,0 km/h (0 Bft)
14.11.2013 05:44 1,4 C 1,1 C 99 % 1022,2 hPa 0,0 l/m 0 min 0 min 0,0 UV-I 0 W/m 7,7 km/h (2 Bft)
14.11.2013 05:46 1,4 C 1,1 C 99 % 1022,2 hPa 0,0 l/m 0 min 0 min 0,0 UV-I 0 W/m 5,1 km/h (1 Bft)
14.11.2013 05:48 1,4 C 1,1 C 99 % 1022,1 hPa 0,0 l/m 0 min 0 min 0,0 UV-I 0 W/m 2,6 km/h (1 Bft)
14.11.2013 05:50 1,4 C 1,1 C 99 % 1022,1 hPa 0,0 l/m 0 min 0 min 0,0 UV-I 0 W/m 0,0 km/h (0 Bft)
14.11.2013 05:52 1,4 C 0,6 C 99 % 1022,0 hPa 0,0 l/m 0 min 0 min 0,0 UV-I 0 W/m 7,7 km/h (2 Bft)
14.11.2013 05:54 1,4 C 0,6 C 99 % 1022,1 hPa 0,0 l/m 0 min 0 min 0,0 UV-I 0 W/m 5,1 km/h (1 Bft)
14.11.2013 05:56 1,4 C 0,6 C 99 % 1022,0 hPa 0,0 l/m 0 min 0 min 0,0 UV-I 0 W/m 2,6 km/h (1 Bft)
14.11.2013 05:58 1,4 C 0,6 C 99 % 1021,9 hPa 0,0 l/m 0 min 0 min 0,0 UV-I 0 W/m 0,0 km/h (0 Bft)
14.11.2013 06:00 1,4 C 0,6 C 99 % 1021,9 hPa 0,0 l/m 0 min 0 min 0,0 UV-I 0 W/m 2,6 km/h (1 Bft)
14.11.2013 06:02 1,4 C 0,6 C 99 % 1021,8 hPa 0,0 l/m 0 min 0 min 0,0 UV-I 0 W/m 0,0 km/h (0 Bft)
14.11.2013 06:04 1,4 C 0,6 C 99 % 1021,7 hPa 0,0 l/m 0 min 0 min 0,0 UV-I 0 W/m 0,0 km/h (0 Bft)
14.11.2013 06:06 1,4 C 0,6 C 99 % 1021,7 hPa 0,0 l/m 0 min 0 min 0,0 UV-I 0 W/m 0,0 km/h (0 Bft)
14.11.2013 06:08 1,4 C 0,6 C 99 % 1021,6 hPa 0,0 l/m 0 min 0 min 0,0 UV-I 0 W/m 0,0 km/h (0 Bft)
14.11.2013 06:10 1,4 C 0,6 C 99 % 1021,6 hPa 0,0 l/m 0 min 0 min 0,0 UV-I 0 W/m 0,0 km/h (0 Bft)
14.11.2013 06:12 1,4 C 0,6 C 99 % 1021,6 hPa 0,0 l/m 0 min 0 min 0,0 UV-I 0 W/m 10,3 km/h (2 Bft)
14.11.2013 06:14 1,3 C 0,6 C 99 % 1021,5 hPa 0,0 l/m 0 min 0 min 0,0 UV-I 0 W/m 7,7 km/h (2 Bft)
14.11.2013 06:16 1,3 C 0,6 C 99 % 1021,5 hPa 0,0 l/m 0 min 0 min 0,0 UV-I 0 W/m 10,3 km/h (2 Bft)
14.11.2013 06:18 1,3 C 0,6 C 99 % 1021,4 hPa 0,0 l/m 0 min 0 min 0,0 UV-I 0 W/m 0,0 km/h (0 Bft)
14.11.2013 06:20 1,3 C 0,6 C 99 % 1021,4 hPa 0,0 l/m 0 min 0 min 0,0 UV-I 0 W/m 0,0 km/h (0 Bft)
14.11.2013 06:22 1,3 C 0,6 C 99 % 1021,4 hPa 0,0 l/m 0 min 0 min 0,0 UV-I 0 W/m 0,0 km/h (0 Bft)
14.11.2013 06:24 1,3 C 0,6 C 99 % 1021,4 hPa 0,0 l/m 0 min 0 min 0,0 UV-I 0 W/m 7,7 km/h (2 Bft)
14.11.2013 06:26 1,3 C 0,6 C 99 % 1021,4 hPa 0,0 l/m 0 min 0 min 0,0 UV-I 0 W/m 5,1 km/h (1 Bft)
14.11.2013 06:28 1,3 C 0,6 C 99 % 1021,4 hPa 0,0 l/m 0 min 0 min 0,0 UV-I 0 W/m 5,1 km/h (1 Bft)
14.11.2013 06:30 1,3 C 0,6 C 99 % 1021,3 hPa 0,0 l/m 0 min 0 min 0,0 UV-I 0 W/m 2,6 km/h (1 Bft)
14.11.2013 06:32 1,3 C 0,6 C 99 % 1021,3 hPa 0,0 l/m 0 min 0 min 0,0 UV-I 0 W/m 0,0 km/h (0 Bft)
14.11.2013 06:34 1,3 C 0,6 C 99 % 1021,3 hPa 0,0 l/m 0 min 0 min 0,0 UV-I 0 W/m 0,0 km/h (0 Bft)
14.11.2013 06:36 1,3 C 0,6 C 99 % 1021,3 hPa 0,0 l/m 0 min 0 min 0,0 UV-I 0 W/m 0,0 km/h (0 Bft)
14.11.2013 06:38 1,3 C 0,6 C 99 % 1021,2 hPa 0,0 l/m 0 min 0 min 0,0 UV-I 0 W/m 2,6 km/h (1 Bft)
14.11.2013 06:40 1,3 C 0,6 C 99 % 1021,1 hPa 0,0 l/m 0 min 0 min 0,0 UV-I 0 W/m 0,0 km/h (0 Bft)
14.11.2013 06:42 1,3 C 0,6 C 99 % 1021,3 hPa 0,0 l/m 0 min 0 min 0,0 UV-I 0 W/m 7,7 km/h (2 Bft)
14.11.2013 06:44 1,3 C 0,6 C 99 % 1021,2 hPa 0,0 l/m 0 min 0 min 0,0 UV-I 0 W/m 0,0 km/h (0 Bft)
14.11.2013 06:46 1,3 C 0,6 C 99 % 1021,2 hPa 0,0 l/m 0 min 0 min 0,0 UV-I 0 W/m 2,6 km/h (1 Bft)
14.11.2013 06:48 1,3 C 0,6 C 99 % 1021,1 hPa 0,0 l/m 0 min 0 min 0,0 UV-I 0 W/m 7,7 km/h (2 Bft)
14.11.2013 06:50 1,3 C 0,6 C 99 % 1021,0 hPa 0,0 l/m 0 min 0 min 0,0 UV-I 0 W/m 7,7 km/h (2 Bft)
14.11.2013 06:52 1,3 C 0,6 C 99 % 1021,0 hPa 0,0 l/m 0 min 0 min 0,0 UV-I 0 W/m 5,1 km/h (1 Bft)
14.11.2013 06:54 1,3 C 0,6 C 99 % 1021,0 hPa 0,0 l/m 0 min 0 min 0,0 UV-I 0 W/m 5,1 km/h (1 Bft)
14.11.2013 06:56 1,3 C 0,6 C 99 % 1020,9 hPa 0,0 l/m 0 min 0 min 0,0 UV-I 0 W/m 0,0 km/h (0 Bft)
14.11.2013 06:58 1,3 C 0,6 C 99 % 1020,9 hPa 0,0 l/m 0 min 0 min 0,0 UV-I 0 W/m 0,0 km/h (0 Bft)
14.11.2013 07:00 1,3 C 0,6 C 99 % 1021,0 hPa 0,0 l/m 0 min 0 min 0,0 UV-I 0 W/m 0,0 km/h (0 Bft)
14.11.2013 07:02 1,3 C 0,6 C 99 % 1020,9 hPa 0,0 l/m 0 min 0 min 0,0 UV-I 0 W/m 0,0 km/h (0 Bft)
14.11.2013 07:04 1,3 C 0,6 C 99 % 1020,9 hPa 0,0 l/m 0 min 0 min 0,0 UV-I 0 W/m 0,0 km/h (0 Bft)
14.11.2013 07:06 1,2 C 0,6 C 99 % 1020,8 hPa 0,0 l/m 0 min 0 min 0,0 UV-I 0 W/m 2,6 km/h (1 Bft)
14.11.2013 07:08 1,2 C 0,0 C 99 % 1020,8 hPa 0,0 l/m 0 min 0 min 0,0 UV-I 0 W/m 0,0 km/h (0 Bft)
14.11.2013 07:10 1,2 C 0,0 C 99 % 1020,9 hPa 0,0 l/m 0 min 0 min 0,0 UV-I 0 W/m 0,0 km/h (0 Bft)
14.11.2013 07:12 1,1 C 0,0 C 99 % 1020,8 hPa 0,0 l/m 0 min 0 min 0,0 UV-I 0 W/m 0,0 km/h (0 Bft)
14.11.2013 07:14 1,1 C 0,0 C 99 % 1020,9 hPa 0,0 l/m 0 min 0 min 0,0 UV-I 0 W/m 0,0 km/h (0 Bft)
14.11.2013 07:16 1,1 C 0,0 C 99 % 1020,8 hPa 0,0 l/m 0 min 0 min 0,0 UV-I 0 W/m 2,6 km/h (1 Bft)
14.11.2013 07:18 1,1 C 0,0 C 99 % 1020,8 hPa 0,0 l/m 0 min 0 min 0,0 UV-I 0 W/m 5,1 km/h (1 Bft)
14.11.2013 07:20 1,1 C -0,6 C 99 % 1020,8 hPa 0,0 l/m 0 min 0 min 0,0 UV-I 0 W/m 0,0 km/h (0 Bft)
14.11.2013 07:22 1,1 C 0,0 C 99 % 1020,8 hPa 0,0 l/m 0 min 0 min 0,0 UV-I 0 W/m 0,0 km/h (0 Bft)
14.11.2013 07:24 1,0 C 0,0 C 99 % 1020,8 hPa 0,0 l/m 0 min 0 min 0,0 UV-I 0 W/m 0,0 km/h (0 Bft)
14.11.2013 07:26 1,0 C 0,0 C 99 % 1020,7 hPa 0,0 l/m 0 min 0 min 0,0 UV-I 0 W/m 7,7 km/h (2 Bft)
14.11.2013 07:28 1,0 C 0,0 C 99 % 1020,7 hPa 0,0 l/m 0 min 0 min 0,0 UV-I 0 W/m 5,1 km/h (1 Bft)
14.11.2013 07:30 1,0 C 0,0 C 99 % 1020,6 hPa 0,0 l/m 0 min 0 min 0,0 UV-I 0 W/m 7,7 km/h (2 Bft)
14.11.2013 07:32 1,0 C 0,0 C 99 % 1020,5 hPa 0,0 l/m 0 min 0 min 0,0 UV-I 0 W/m 0,0 km/h (0 Bft)
14.11.2013 07:34 1,0 C 0,0 C 99 % 1020,6 hPa 0,0 l/m 0 min 0 min 0,0 UV-I 0 W/m 2,6 km/h (1 Bft)
14.11.2013 07:36 1,0 C 0,0 C 99 % 1020,5 hPa 0,0 l/m 0 min 0 min 0,0 UV-I 0 W/m 5,1 km/h (1 Bft)
14.11.2013 07:38 1,1 C 0,0 C 99 % 1020,5 hPa 0,0 l/m 0 min 0 min 0,0 UV-I 0 W/m 0,0 km/h (0 Bft)
14.11.2013 07:40 1,0 C 0,0 C 99 % 1020,6 hPa 0,0 l/m 0 min 0 min 0,0 UV-I 0 W/m 0,0 km/h (0 Bft)
14.11.2013 07:42 1,0 C 0,0 C 99 % 1020,6 hPa 0,0 l/m 0 min 0 min 0,0 UV-I 0 W/m 0,0 km/h (0 Bft)
14.11.2013 07:44 1,0 C 0,0 C 99 % 1020,5 hPa 0,0 l/m 0 min 0 min 0,0 UV-I 0 W/m 0,0 km/h (0 Bft)
14.11.2013 07:46 1,0 C 0,0 C 99 % 1020,4 hPa 0,0 l/m 0 min 0 min 0,0 UV-I 0 W/m 0,0 km/h (0 Bft)
14.11.2013 07:48 1,0 C 0,0 C 99 % 1020,4 hPa 0,0 l/m 0 min 0 min 0,0 UV-I 0 W/m 0,0 km/h (0 Bft)
14.11.2013 07:50 1,0 C 0,0 C 99 % 1020,5 hPa 0,0 l/m 0 min 0 min 0,0 UV-I 5 W/m 0,0 km/h (0 Bft)
14.11.2013 07:52 1,0 C 0,0 C 99 % 1020,5 hPa 0,0 l/m 0 min 0 min 0,0 UV-I 5 W/m 0,0 km/h (0 Bft)
14.11.2013 07:54 1,0 C 0,0 C 99 % 1020,4 hPa 0,0 l/m 0 min 0 min 0,0 UV-I 7 W/m 0,0 km/h (0 Bft)
14.11.2013 07:56 1,0 C 0,0 C 99 % 1020,4 hPa 0,0 l/m 0 min 0 min 0,0 UV-I 7 W/m 0,0 km/h (0 Bft)
14.11.2013 07:58 1,0 C 0,0 C 99 % 1020,4 hPa 0,0 l/m 0 min 0 min 0,0 UV-I 9 W/m 0,0 km/h (0 Bft)
14.11.2013 08:00 0,9 C 0,0 C 99 % 1020,4 hPa 0,0 l/m 0 min 0 min 0,0 UV-I 11 W/m 5,1 km/h (1 Bft)
14.11.2013 08:02 0,9 C 0,0 C 99 % 1020,4 hPa 0,0 l/m 0 min 0 min 0,0 UV-I 11 W/m 7,7 km/h (2 Bft)
14.11.2013 08:04 1,0 C 0,0 C 99 % 1020,4 hPa 0,0 l/m 0 min 0 min 0,0 UV-I 12 W/m 5,1 km/h (1 Bft)
14.11.2013 08:06 0,9 C 0,0 C 99 % 1020,4 hPa 0,0 l/m 0 min 0 min 0,0 UV-I 12 W/m 0,0 km/h (0 Bft)
14.11.2013 08:08 0,9 C 0,0 C 99 % 1020,4 hPa 0,0 l/m 0 min 0 min 0,0 UV-I 12 W/m 2,6 km/h (1 Bft)
14.11.2013 08:10 0,9 C 0,0 C 99 % 1020,4 hPa 0,0 l/m 0 min 0 min 0,0 UV-I 12 W/m 2,6 km/h (1 Bft)
14.11.2013 08:12 0,9 C 0,0 C 99 % 1020,4 hPa 0,0 l/m 0 min 0 min 0,0 UV-I 12 W/m 0,0 km/h (0 Bft)
14.11.2013 08:14 0,9 C 0,0 C 99 % 1020,5 hPa 0,0 l/m 0 min 0 min 0,0 UV-I 12 W/m 0,0 km/h (0 Bft)
14.11.2013 08:16 1,0 C 0,0 C 99 % 1020,4 hPa 0,0 l/m 0 min 0 min 0,0 UV-I 12 W/m 2,6 km/h (1 Bft)
14.11.2013 08:18 1,0 C 0,0 C 99 % 1020,4 hPa 0,0 l/m 0 min 0 min 0,0 UV-I 12 W/m 0,0 km/h (0 Bft)
14.11.2013 08:20 1,0 C 0,0 C 99 % 1020,4 hPa 0,0 l/m 0 min 0 min 0,0 UV-I 12 W/m 0,0 km/h (0 Bft)
14.11.2013 08:22 1,0 C 0,0 C 99 % 1020,4 hPa 0,0 l/m 0 min 0 min 0,0 UV-I 12 W/m 0,0 km/h (0 Bft)
14.11.2013 08:24 1,0 C 0,0 C 99 % 1020,4 hPa 0,0 l/m 0 min 0 min 0,0 UV-I 12 W/m 5,1 km/h (1 Bft)
14.11.2013 08:26 1,1 C 0,0 C 99 % 1020,3 hPa 0,0 l/m 0 min 0 min 0,0 UV-I 12 W/m 0,0 km/h (0 Bft)
14.11.2013 08:28 1,0 C 0,0 C 99 % 1020,2 hPa 0,0 l/m 0 min 0 min 0,0 UV-I 12 W/m 5,1 km/h (1 Bft)
14.11.2013 08:30 1,0 C 0,0 C 99 % 1020,2 hPa 0,0 l/m 0 min 0 min 0,0 UV-I 12 W/m 10,3 km/h (2 Bft)
14.11.2013 08:32 1,0 C 0,0 C 99 % 1020,1 hPa 0,0 l/m 0 min 0 min 0,0 UV-I 12 W/m 7,7 km/h (2 Bft)
14.11.2013 08:34 1,0 C 0,0 C 99 % 1020,1 hPa 0,0 l/m 0 min 0 min 0,0 UV-I 14 W/m 2,6 km/h (1 Bft)
14.11.2013 08:36 1,0 C 0,0 C 99 % 1020,1 hPa 0,0 l/m 0 min 0 min 0,0 UV-I 14 W/m 7,7 km/h (2 Bft)
14.11.2013 08:38 1,0 C 0,0 C 99 % 1020,1 hPa 0,0 l/m 0 min 0 min 0,0 UV-I 16 W/m 5,1 km/h (1 Bft)
14.11.2013 08:40 1,0 C 0,0 C 99 % 1020,0 hPa 0,0 l/m 0 min 0 min 0,0 UV-I 16 W/m 0,0 km/h (0 Bft)
14.11.2013 08:42 1,0 C 0,0 C 99 % 1019,9 hPa 0,0 l/m 0 min 0 min 0,0 UV-I 19 W/m 5,1 km/h (1 Bft)
14.11.2013 08:44 1,0 C 0,0 C 99 % 1019,9 hPa 0,0 l/m 0 min 0 min 0,0 UV-I 23 W/m 2,6 km/h (1 Bft)
14.11.2013 08:46 1,0 C 0,0 C 99 % 1020,0 hPa 0,0 l/m 0 min 0 min 0,0 UV-I 25 W/m 5,1 km/h (1 Bft)
14.11.2013 08:48 1,1 C 0,6 C 99 % 1019,9 hPa 0,0 l/m 0 min 0 min 0,0 UV-I 23 W/m 7,7 km/h (2 Bft)
14.11.2013 08:50 1,1 C 0,6 C 99 % 1020,0 hPa 0,0 l/m 0 min 0 min 0,0 UV-I 25 W/m 0,0 km/h (0 Bft)
14.11.2013 08:52 1,1 C 0,6 C 99 % 1019,9 hPa 0,0 l/m 0 min 0 min 0,0 UV-I 28 W/m 10,3 km/h (2 Bft)
14.11.2013 08:54 1,2 C 0,6 C 99 % 1019,9 hPa 0,0 l/m 0 min 0 min 0,0 UV-I 40 W/m 7,7 km/h (2 Bft)
14.11.2013 08:56 1,2 C 0,6 C 99 % 1019,8 hPa 0,0 l/m 0 min 0 min 0,0 UV-I 49 W/m 7,7 km/h (2 Bft)
14.11.2013 08:58 1,3 C 0,6 C 99 % 1019,9 hPa 0,0 l/m 0 min 0 min 0,0 UV-I 54 W/m 5,1 km/h (1 Bft)
14.11.2013 09:00 1,3 C 0,6 C 99 % 1019,9 hPa 0,0 l/m 0 min 0 min 0,0 UV-I 60 W/m 5,1 km/h (1 Bft)
14.11.2013 09:02 1,4 C 1,1 C 99 % 1019,9 hPa 0,0 l/m 0 min 0 min 0,0 UV-I 60 W/m 7,7 km/h (2 Bft)
14.11.2013 09:04 1,5 C 1,1 C 99 % 1019,8 hPa 0,0 l/m 0 min 2 min 0,0 UV-I 65 W/m 7,7 km/h (2 Bft)
14.11.2013 09:06 1,6 C 1,1 C 99 % 1019,8 hPa 0,0 l/m 0 min 0 min 0,0 UV-I 74 W/m 5,1 km/h (1 Bft)
14.11.2013 09:08 1,7 C 1,1 C 99 % 1019,8 hPa 0,0 l/m 0 min 0 min 0,0 UV-I 77 W/m 5,1 km/h (1 Bft)
14.11.2013 09:10 1,8 C 1,7 C 99 % 1019,8 hPa 0,0 l/m 0 min 0 min 0,0 UV-I 83 W/m 5,1 km/h (1 Bft)
14.11.2013 09:12 1,8 C 1,7 C 99 % 1019,8 hPa 0,0 l/m 0 min 0 min 0,0 UV-I 65 W/m 12,9 km/h (3 Bft)
14.11.2013 09:14 1,9 C 1,7 C 99 % 1019,7 hPa 0,0 l/m 0 min 0 min 0,0 UV-I 62 W/m 5,1 km/h (1 Bft)
14.11.2013 09:16 1,9 C 1,7 C 99 % 1019,7 hPa 0,0 l/m 0 min 0 min 0,0 UV-I 54 W/m 2,6 km/h (1 Bft)
14.11.2013 09:18 2,0 C 1,7 C 99 % 1019,7 hPa 0,0 l/m 0 min 0 min 0,0 UV-I 51 W/m 10,3 km/h (2 Bft)
14.11.2013 09:20 2,1 C 1,7 C 99 % 1019,7 hPa 0,0 l/m 0 min 0 min 0,0 UV-I 51 W/m 10,3 km/h (2 Bft)
14.11.2013 09:22 2,1 C 1,7 C 99 % 1019,6 hPa 0,0 l/m 0 min 0 min 0,0 UV-I 51 W/m 12,9 km/h (3 Bft)
14.11.2013 09:24 2,1 C 1,7 C 99 % 1019,6 hPa 0,0 l/m 0 min 0 min 0,0 UV-I 51 W/m 10,3 km/h (2 Bft)
14.11.2013 09:26 2,2 C 1,7 C 99 % 1019,6 hPa 0,0 l/m 0 min 0 min 0,0 UV-I 51 W/m 12,9 km/h (3 Bft)
14.11.2013 09:28 2,2 C 1,7 C 99 % 1019,5 hPa 0,0 l/m 0 min 0 min 0,0 UV-I 53 W/m 10,3 km/h (2 Bft)
14.11.2013 09:30 2,2 C 1,7 C 99 % 1019,5 hPa 0,0 l/m 0 min 0 min 0,0 UV-I 51 W/m 10,3 km/h (2 Bft)
14.11.2013 09:32 2,2 C 2,2 C 99 % 1019,5 hPa 0,0 l/m 0 min 0 min 0,0 UV-I 47 W/m 5,1 km/h (1 Bft)
14.11.2013 09:34 2,3 C 2,2 C 99 % 1019,5 hPa 0,0 l/m 0 min 0 min 0,0 UV-I 44 W/m 10,3 km/h (2 Bft)
14.11.2013 09:36 2,3 C 2,2 C 99 % 1019,5 hPa 0,0 l/m 0 min 0 min 0,0 UV-I 44 W/m 5,1 km/h (1 Bft)
14.11.2013 09:38 2,4 C 2,2 C 99 % 1019,5 hPa 0,0 l/m 0 min 0 min 0,0 UV-I 44 W/m 5,1 km/h (1 Bft)
14.11.2013 09:40 2,4 C 2,2 C 99 % 1019,5 hPa 0,0 l/m 0 min 0 min 0,0 UV-I 47 W/m 12,9 km/h (3 Bft)
14.11.2013 09:42 2,5 C 2,2 C 99 % 1019,4 hPa 0,0 l/m 0 min 0 min 0,0 UV-I 47 W/m 2,6 km/h (1 Bft)
14.11.2013 09:44 2,6 C 2,2 C 99 % 1019,4 hPa 0,0 l/m 0 min 0 min 0,0 UV-I 44 W/m 2,6 km/h (1 Bft)
14.11.2013 09:46 2,6 C 2,2 C 99 % 1019,4 hPa 0,0 l/m 0 min 0 min 0,0 UV-I 44 W/m 7,7 km/h (2 Bft)
14.11.2013 09:48 2,6 C 2,2 C 99 % 1019,4 hPa 0,0 l/m 0 min 0 min 0,0 UV-I 47 W/m 10,3 km/h (2 Bft)
14.11.2013 09:50 2,7 C 2,2 C 99 % 1019,3 hPa 0,0 l/m 0 min 0 min 0,0 UV-I 53 W/m 7,7 km/h (2 Bft)
14.11.2013 09:52 2,7 C 2,8 C 99 % 1019,5 hPa 0,0 l/m 0 min 0 min 0,0 UV-I 56 W/m 7,7 km/h (2 Bft)
14.11.2013 09:54 2,7 C 2,8 C 99 % 1019,4 hPa 0,0 l/m 0 min 0 min 0,0 UV-I 56 W/m 0,0 km/h (0 Bft)
14.11.2013 09:56 2,8 C 2,8 C 99 % 1019,3 hPa 0,0 l/m 0 min 0 min 0,0 UV-I 53 W/m 0,0 km/h (0 Bft)
14.11.2013 09:58 2,8 C 2,8 C 99 % 1019,4 hPa 0,0 l/m 0 min 0 min 0,0 UV-I 54 W/m 7,7 km/h (2 Bft)
14.11.2013 10:00 2,8 C 2,8 C 99 % 1019,4 hPa 0,0 l/m 0 min 0 min 0,0 UV-I 53 W/m 10,3 km/h (2 Bft)
14.11.2013 10:02 2,8 C 2,8 C 99 % 1019,3 hPa 0,0 l/m 0 min 0 min 0,0 UV-I 49 W/m 10,3 km/h (2 Bft)
14.11.2013 10:04 2,9 C 2,8 C 99 % 1019,3 hPa 0,0 l/m 0 min 0 min 0,0 UV-I 46 W/m 5,1 km/h (1 Bft)
14.11.2013 10:06 2,9 C 2,8 C 99 % 1019,4 hPa 0,0 l/m 0 min 0 min 0,0 UV-I 44 W/m 5,1 km/h (1 Bft)
14.11.2013 10:08 2,9 C 2,8 C 99 % 1019,4 hPa 0,0 l/m 0 min 0 min 0,0 UV-I 44 W/m 10,3 km/h (2 Bft)
14.11.2013 10:10 2,9 C 2,8 C 99 % 1019,4 hPa 0,0 l/m 0 min 0 min 0,0 UV-I 44 W/m 2,6 km/h (1 Bft)
14.11.2013 10:12 2,9 C 2,8 C 99 % 1019,3 hPa 0,0 l/m 0 min 0 min 0,0 UV-I 42 W/m 12,9 km/h (3 Bft)
14.11.2013 10:14 3,0 C 2,8 C 99 % 1019,4 hPa 0,0 l/m 0 min 0 min 0,0 UV-I 42 W/m 10,3 km/h (2 Bft)
14.11.2013 10:16 3,0 C 2,8 C 99 % 1019,3 hPa 0,0 l/m 0 min 0 min 0,0 UV-I 44 W/m 10,3 km/h (2 Bft)
14.11.2013 10:18 3,1 C 2,8 C 99 % 1019,3 hPa 0,0 l/m 0 min 0 min 0,0 UV-I 44 W/m 15,4 km/h (3 Bft)
14.11.2013 10:20 3,1 C 2,8 C 99 % 1019,3 hPa 0,0 l/m 0 min 0 min 0,0 UV-I 46 W/m 5,1 km/h (1 Bft)
14.11.2013 10:22 3,1 C 2,8 C 99 % 1019,3 hPa 0,0 l/m 0 min 0 min 0,0 UV-I 46 W/m 7,7 km/h (2 Bft)
14.11.2013 10:24 3,2 C 2,8 C 99 % 1019,2 hPa 0,0 l/m 0 min 0 min 0,0 UV-I 44 W/m 10,3 km/h (2 Bft)
14.11.2013 10:26 3,2 C 2,8 C 99 % 1019,2 hPa 0,0 l/m 0 min 0 min 0,0 UV-I 37 W/m 7,7 km/h (2 Bft)
14.11.2013 10:28 3,2 C 2,8 C 99 % 1019,2 hPa 0,0 l/m 0 min 0 min 0,0 UV-I 35 W/m 5,1 km/h (1 Bft)
14.11.2013 10:30 3,3 C 2,8 C 99 % 1019,2 hPa 0,0 l/m 0 min 0 min 0,0 UV-I 35 W/m 7,7 km/h (2 Bft)
14.11.2013 10:32 3,3 C 2,8 C 99 % 1019,2 hPa 0,0 l/m 0 min 0 min 0,0 UV-I 44 W/m 5,1 km/h (1 Bft)
14.11.2013 10:34 3,3 C 3,3 C 99 % 1019,1 hPa 0,0 l/m 0 min 0 min 0,0 UV-I 49 W/m 5,1 km/h (1 Bft)
14.11.2013 10:36 3,4 C 3,3 C 99 % 1019,2 hPa 0,0 l/m 0 min 0 min 0,0 UV-I 51 W/m 10,3 km/h (2 Bft)
14.11.2013 10:38 3,4 C 3,3 C 99 % 1019,1 hPa 0,0 l/m 0 min 0 min 0,0 UV-I 58 W/m 7,7 km/h (2 Bft)
14.11.2013 10:40 3,4 C 3,3 C 99 % 1019,1 hPa 0,0 l/m 0 min 0 min 0,0 UV-I 63 W/m 7,7 km/h (2 Bft)
14.11.2013 10:42 3,5 C 3,3 C 99 % 1019,0 hPa 0,0 l/m 0 min 0 min 0,0 UV-I 65 W/m 7,7 km/h (2 Bft)
14.11.2013 10:44 3,6 C 3,3 C 99 % 1019,1 hPa 0,0 l/m 0 min 0 min 0,0 UV-I 62 W/m 10,3 km/h (2 Bft)
14.11.2013 10:46 3,6 C 3,3 C 99 % 1019,0 hPa 0,0 l/m 0 min 0 min 0,0 UV-I 53 W/m 10,3 km/h (2 Bft)
14.11.2013 10:48 3,6 C 3,3 C 99 % 1019,0 hPa 0,0 l/m 0 min 0 min 0,0 UV-I 44 W/m 7,7 km/h (2 Bft)
14.11.2013 10:50 3,7 C 3,3 C 99 % 1019,0 hPa 0,0 l/m 0 min 0 min 0,0 UV-I 42 W/m 7,7 km/h (2 Bft)
14.11.2013 10:52 3,7 C 3,3 C 99 % 1019,0 hPa 0,0 l/m 0 min 0 min 0,0 UV-I 47 W/m 5,1 km/h (1 Bft)
14.11.2013 10:54 3,7 C 3,3 C 99 % 1019,0 hPa 0,0 l/m 0 min 0 min 0,0 UV-I 58 W/m 10,3 km/h (2 Bft)
14.11.2013 10:56 3,7 C 3,3 C 99 % 1019,0 hPa 0,0 l/m 0 min 0 min 0,0 UV-I 69 W/m 0,0 km/h (0 Bft)
14.11.2013 10:58 3,8 C 3,9 C 99 % 1018,9 hPa 0,0 l/m 0 min 2 min 0,0 UV-I 72 W/m 7,7 km/h (2 Bft)
14.11.2013 11:00 3,9 C 3,9 C 99 % 1018,9 hPa 0,0 l/m 0 min 0 min 0,0 UV-I 77 W/m 10,3 km/h (2 Bft)
14.11.2013 11:02 3,9 C 3,9 C 99 % 1018,9 hPa 0,0 l/m 0 min 2 min 0,0 UV-I 83 W/m 0,0 km/h (0 Bft)
14.11.2013 11:04 4,1 C 3,9 C 99 % 1018,8 hPa 0,0 l/m 0 min 2 min 0,0 UV-I 84 W/m 2,6 km/h (1 Bft)
14.11.2013 11:06 4,1 C 3,9 C 99 % 1018,8 hPa 0,0 l/m 0 min 2 min 0,0 UV-I 90 W/m 5,1 km/h (1 Bft)
14.11.2013 11:08 4,2 C 3,9 C 99 % 1018,7 hPa 0,0 l/m 0 min 2 min 0,0 UV-I 97 W/m 10,3 km/h (2 Bft)
14.11.2013 11:10 4,2 C 3,9 C 99 % 1018,8 hPa 0,0 l/m 0 min 2 min 0,0 UV-I 95 W/m 5,1 km/h (1 Bft)
14.11.2013 11:12 4,3 C 3,9 C 99 % 1018,8 hPa 0,0 l/m 0 min 2 min 0,0 UV-I 90 W/m 10,3 km/h (2 Bft)
14.11.2013 11:14 4,3 C 3,9 C 99 % 1018,8 hPa 0,0 l/m 0 min 2 min 0,0 UV-I 77 W/m 5,1 km/h (1 Bft)
14.11.2013 11:16 4,3 C 3,9 C 99 % 1018,7 hPa 0,0 l/m 0 min 2 min 0,0 UV-I 70 W/m 5,1 km/h (1 Bft)
14.11.2013 11:18 4,4 C 3,9 C 99 % 1018,7 hPa 0,0 l/m 0 min 0 min 0,0 UV-I 69 W/m 0,0 km/h (0 Bft)
14.11.2013 11:20 4,4 C 3,9 C 99 % 1018,7 hPa 0,0 l/m 0 min 0 min 0,0 UV-I 69 W/m 7,7 km/h (2 Bft)
14.11.2013 11:22 4,4 C 3,9 C 99 % 1018,6 hPa 0,0 l/m 0 min 0 min 0,0 UV-I 63 W/m 10,3 km/h (2 Bft)
14.11.2013 11:24 4,4 C 3,9 C 99 % 1018,6 hPa 0,0 l/m 0 min 0 min 0,0 UV-I 58 W/m 12,9 km/h (3 Bft)
14.11.2013 11:26 4,4 C 3,9 C 99 % 1018,6 hPa 0,0 l/m 0 min 0 min 0,0 UV-I 46 W/m 10,3 km/h (2 Bft)
14.11.2013 11:28 4,4 C 3,9 C 99 % 1018,6 hPa 0,0 l/m 0 min 0 min 0,0 UV-I 46 W/m 5,1 km/h (1 Bft)
14.11.2013 11:30 4,5 C 3,9 C 99 % 1018,6 hPa 0,0 l/m 0 min 0 min 0,0 UV-I 49 W/m 7,7 km/h (2 Bft)
14.11.2013 11:32 4,5 C 3,9 C 99 % 1018,5 hPa 0,0 l/m 0 min 0 min 0,0 UV-I 51 W/m 7,7 km/h (2 Bft)
14.11.2013 11:34 4,5 C 3,9 C 99 % 1018,5 hPa 0,0 l/m 0 min 0 min 0,0 UV-I 58 W/m 2,6 km/h (1 Bft)
14.11.2013 11:36 4,6 C 3,9 C 99 % 1018,5 hPa 0,0 l/m 0 min 0 min 0,0 UV-I 65 W/m 0,0 km/h (0 Bft)
14.11.2013 11:38 4,6 C 3,9 C 99 % 1018,5 hPa 0,0 l/m 0 min 0 min 0,0 UV-I 54 W/m 7,7 km/h (2 Bft)
14.11.2013 11:40 4,6 C 4,4 C 99 % 1018,4 hPa 0,0 l/m 0 min 0 min 0,0 UV-I 49 W/m 7,7 km/h (2 Bft)
14.11.2013 11:42 4,7 C 3,9 C 99 % 1018,3 hPa 0,0 l/m 0 min 0 min 0,0 UV-I 42 W/m 7,7 km/h (2 Bft)
14.11.2013 11:44 4,7 C 3,9 C 99 % 1018,3 hPa 0,0 l/m 0 min 0 min 0,0 UV-I 39 W/m 5,1 km/h (1 Bft)
14.11.2013 11:46 4,7 C 3,9 C 99 % 1018,4 hPa 0,0 l/m 0 min 0 min 0,0 UV-I 42 W/m 7,7 km/h (2 Bft)
14.11.2013 11:48 4,7 C 3,9 C 99 % 1018,3 hPa 0,0 l/m 0 min 0 min 0,0 UV-I 49 W/m 7,7 km/h (2 Bft)
14.11.2013 11:50 4,7 C 4,4 C 99 % 1018,3 hPa 0,0 l/m 0 min 0 min 0,0 UV-I 56 W/m 7,7 km/h (2 Bft)
14.11.2013 11:52 4,8 C 4,4 C 99 % 1018,3 hPa 0,0 l/m 0 min 0 min 0,0 UV-I 54 W/m 7,7 km/h (2 Bft)
14.11.2013 11:54 4,8 C 4,4 C 99 % 1018,3 hPa 0,0 l/m 0 min 0 min 0,0 UV-I 49 W/m 2,6 km/h (1 Bft)
14.11.2013 11:56 4,8 C 4,4 C 99 % 1018,3 hPa 0,0 l/m 0 min 0 min 0,0 UV-I 46 W/m 7,7 km/h (2 Bft)
14.11.2013 11:58 4,8 C 4,4 C 99 % 1018,3 hPa 0,0 l/m 0 min 0 min 0,0 UV-I 53 W/m 7,7 km/h (2 Bft)
14.11.2013 12:00 4,8 C 4,4 C 99 % 1018,3 hPa 0,0 l/m 0 min 0 min 0,0 UV-I 37 W/m 7,7 km/h (2 Bft)
14.11.2013 12:02 4,8 C 4,4 C 99 % 1018,3 hPa 0,0 l/m 0 min 0 min 0,0 UV-I 33 W/m 7,7 km/h (2 Bft)
14.11.2013 12:04 4,8 C 4,4 C 99 % 1018,3 hPa 0,0 l/m 0 min 0 min 0,0 UV-I 32 W/m 10,3 km/h (2 Bft)
14.11.2013 12:06 4,7 C 3,9 C 99 % 1018,2 hPa 0,0 l/m 0 min 0 min 0,0 UV-I 28 W/m 10,3 km/h (2 Bft)
14.11.2013 12:08 4,7 C 3,9 C 99 % 1018,1 hPa 0,0 l/m 0 min 0 min 0,0 UV-I 26 W/m 7,7 km/h (2 Bft)
14.11.2013 12:10 4,7 C 3,9 C 99 % 1018,1 hPa 0,0 l/m 0 min 0 min 0,0 UV-I 32 W/m 5,1 km/h (1 Bft)
14.11.2013 12:12 4,7 C 3,9 C 99 % 1018,2 hPa 0,0 l/m 0 min 0 min 0,0 UV-I 35 W/m 15,4 km/h (3 Bft)
14.11.2013 12:14 4,8 C 3,9 C 99 % 1018,2 hPa 0,0 l/m 0 min 0 min 0,0 UV-I 39 W/m 5,1 km/h (1 Bft)
14.11.2013 12:16 4,8 C 4,4 C 99 % 1018,2 hPa 0,0 l/m 0 min 0 min 0,0 UV-I 46 W/m 12,9 km/h (3 Bft)
14.11.2013 12:18 4,8 C 4,4 C 99 % 1018,2 hPa 0,0 l/m 0 min 0 min 0,0 UV-I 47 W/m 7,7 km/h (2 Bft)
14.11.2013 12:20 4,8 C 4,4 C 99 % 1018,2 hPa 0,0 l/m 0 min 0 min 0,0 UV-I 47 W/m 5,1 km/h (1 Bft)
14.11.2013 12:22 4,8 C 4,4 C 99 % 1018,2 hPa 0,0 l/m 0 min 0 min 0,0 UV-I 39 W/m 7,7 km/h (2 Bft)
14.11.2013 12:24 4,9 C 4,4 C 99 % 1018,1 hPa 0,0 l/m 0 min 0 min 0,0 UV-I 30 W/m 12,9 km/h (3 Bft)
14.11.2013 12:26 4,9 C 4,4 C 99 % 1018,1 hPa 0,0 l/m 0 min 0 min 0,0 UV-I 26 W/m 0,0 km/h (0 Bft)
14.11.2013 12:28 4,9 C 4,4 C 99 % 1018,1 hPa 0,0 l/m 0 min 2 min 0,0 UV-I 23 W/m 10,3 km/h (2 Bft)
14.11.2013 12:30 4,9 C 4,4 C 99 % 1018,1 hPa 0,0 l/m 0 min 0 min 0,0 UV-I 23 W/m 15,4 km/h (3 Bft)
14.11.2013 12:32 4,9 C 4,4 C 99 % 1018,2 hPa 0,0 l/m 0 min 2 min 0,0 UV-I 23 W/m 12,9 km/h (3 Bft)
14.11.2013 12:34 4,9 C 4,4 C 99 % 1018,1 hPa 0,0 l/m 0 min 2 min 0,0 UV-I 21 W/m 5,1 km/h (1 Bft)
14.11.2013 12:36 4,9 C 3,9 C 99 % 1018,0 hPa 0,0 l/m 0 min 2 min 0,0 UV-I 23 W/m 12,9 km/h (3 Bft)
14.11.2013 12:38 4,9 C 3,9 C 99 % 1018,0 hPa 0,0 l/m 0 min 2 min 0,0 UV-I 26 W/m 7,7 km/h (2 Bft)
14.11.2013 12:40 5,0 C 3,9 C 99 % 1018,0 hPa 0,0 l/m 0 min 2 min 0,0 UV-I 33 W/m 10,3 km/h (2 Bft)
14.11.2013 12:42 5,0 C 3,9 C 99 % 1017,9 hPa 0,0 l/m 0 min 2 min 0,0 UV-I 44 W/m 10,3 km/h (2 Bft)
14.11.2013 12:44 5,0 C 4,4 C 99 % 1017,9 hPa 0,0 l/m 0 min 2 min 0,0 UV-I 44 W/m 10,3 km/h (2 Bft)
14.11.2013 12:46 5,1 C 4,4 C 99 % 1017,9 hPa 0,0 l/m 0 min 2 min 0,0 UV-I 46 W/m 12,9 km/h (3 Bft)
14.11.2013 12:48 5,1 C 4,4 C 99 % 1017,9 hPa 0,0 l/m 0 min 2 min 0,0 UV-I 46 W/m 10,3 km/h (2 Bft)
14.11.2013 12:50 5,1 C 4,4 C 99 % 1017,9 hPa 0,0 l/m 0 min 2 min 0,0 UV-I 46 W/m 2,6 km/h (1 Bft)
14.11.2013 12:52 5,1 C 4,4 C 99 % 1017,9 hPa 0,0 l/m 0 min 2 min 0,0 UV-I 47 W/m 0,0 km/h (0 Bft)
14.11.2013 12:54 5,2 C 4,4 C 99 % 1017,9 hPa 0,0 l/m 0 min 2 min 0,0 UV-I 51 W/m 5,1 km/h (1 Bft)
14.11.2013 12:56 5,2 C 4,4 C 99 % 1017,9 hPa 0,0 l/m 0 min 2 min 0,0 UV-I 53 W/m 0,0 km/h (0 Bft)
14.11.2013 12:58 5,2 C 4,4 C 99 % 1017,9 hPa 0,0 l/m 0 min 2 min 0,0 UV-I 60 W/m 5,1 km/h (1 Bft)
14.11.2013 13:00 5,2 C 4,4 C 99 % 1017,9 hPa 0,0 l/m 0 min 2 min 0,0 UV-I 62 W/m 5,1 km/h (1 Bft)
14.11.2013 13:02 5,3 C 4,4 C 99 % 1017,9 hPa 0,0 l/m 0 min 2 min 0,0 UV-I 60 W/m 0,0 km/h (0 Bft)
14.11.2013 13:04 5,3 C 4,4 C 99 % 1017,9 hPa 0,0 l/m 0 min 2 min 0,0 UV-I 56 W/m 0,0 km/h (0 Bft)
14.11.2013 13:06 5,3 C 4,4 C 99 % 1017,9 hPa 0,2 l/m 0 min 2 min 0,0 UV-I 53 W/m 2,6 km/h (1 Bft)
14.11.2013 13:08 5,3 C 4,4 C 99 % 1017,9 hPa 0,0 l/m 0 min 2 min 0,0 UV-I 53 W/m 0,0 km/h (0 Bft)
14.11.2013 13:10 5,3 C 4,4 C 99 % 1017,9 hPa 0,0 l/m 0 min 2 min 0,0 UV-I 56 W/m 2,6 km/h (1 Bft)
14.11.2013 13:12 5,4 C 4,4 C 99 % 1017,8 hPa 0,0 l/m 0 min 0 min 0,0 UV-I 56 W/m 0,0 km/h (0 Bft)
14.11.2013 13:14 5,4 C 4,4 C 99 % 1017,8 hPa 0,0 l/m 0 min 2 min 0,0 UV-I 58 W/m 7,7 km/h (2 Bft)
14.11.2013 13:16 5,4 C 4,4 C 98 % 1017,9 hPa 0,0 l/m 0 min 2 min 0,0 UV-I 54 W/m 7,7 km/h (2 Bft)
14.11.2013 13:18 5,4 C 4,4 C 98 % 1017,9 hPa 0,0 l/m 0 min 2 min 0,0 UV-I 53 W/m 0,0 km/h (0 Bft)
14.11.2013 13:20 5,4 C 4,4 C 98 % 1017,8 hPa 0,0 l/m 0 min 2 min 0,0 UV-I 51 W/m 5,1 km/h (1 Bft)
14.11.2013 13:22 5,4 C 4,4 C 98 % 1017,8 hPa 0,0 l/m 0 min 2 min 0,0 UV-I 46 W/m 0,0 km/h (0 Bft)
14.11.2013 13:24 5,4 C 4,4 C 98 % 1017,8 hPa 0,0 l/m 0 min 2 min 0,0 UV-I 42 W/m 5,1 km/h (1 Bft)
14.11.2013 13:26 5,4 C 4,4 C 98 % 1017,8 hPa 0,0 l/m 0 min 2 min 0,0 UV-I 39 W/m 0,0 km/h (0 Bft)
14.11.2013 13:28 5,5 C 4,4 C 98 % 1017,8 hPa 0,0 l/m 0 min 2 min 0,0 UV-I 39 W/m 7,7 km/h (2 Bft)
14.11.2013 13:30 5,5 C 4,4 C 98 % 1017,8 hPa 0,0 l/m 0 min 2 min 0,0 UV-I 42 W/m 7,7 km/h (2 Bft)
14.11.2013 13:32 5,5 C 4,4 C 98 % 1017,8 hPa 0,0 l/m 0 min 2 min 0,0 UV-I 44 W/m 2,6 km/h (1 Bft)
14.11.2013 13:34 5,5 C 4,4 C 98 % 1017,8 hPa 0,0 l/m 0 min 2 min 0,0 UV-I 46 W/m 0,0 km/h (0 Bft)
14.11.2013 13:36 5,5 C 4,4 C 98 % 1017,8 hPa 0,0 l/m 0 min 2 min 0,0 UV-I 44 W/m 5,1 km/h (1 Bft)
14.11.2013 13:38 5,6 C 4,4 C 98 % 1017,8 hPa 0,2 l/m 0 min 2 min 0,0 UV-I 46 W/m 0,0 km/h (0 Bft)
14.11.2013 13:40 5,5 C 4,4 C 98 % 1017,8 hPa 0,0 l/m 0 min 2 min 0,0 UV-I 42 W/m 7,7 km/h (2 Bft)
14.11.2013 13:42 5,5 C 4,4 C 98 % 1017,8 hPa 0,0 l/m 0 min 2 min 0,0 UV-I 37 W/m 5,1 km/h (1 Bft)
14.11.2013 13:44 5,5 C 4,4 C 98 % 1017,8 hPa 0,0 l/m 0 min 2 min 0,0 UV-I 33 W/m 7,7 km/h (2 Bft)
14.11.2013 13:46 5,6 C 4,4 C 98 % 1017,8 hPa 0,0 l/m 0 min 2 min 0,0 UV-I 30 W/m 0,0 km/h (0 Bft)
14.11.2013 13:48 5,5 C 4,4 C 98 % 1017,8 hPa 0,0 l/m 0 min 2 min 0,0 UV-I 32 W/m 5,1 km/h (1 Bft)
14.11.2013 13:50 5,5 C 4,4 C 98 % 1017,8 hPa 0,0 l/m 0 min 2 min 0,0 UV-I 35 W/m 2,6 km/h (1 Bft)
14.11.2013 13:52 5,5 C 4,4 C 98 % 1017,7 hPa 0,0 l/m 0 min 2 min 0,0 UV-I 33 W/m 0,0 km/h (0 Bft)
14.11.2013 13:54 5,5 C 4,4 C 98 % 1017,8 hPa 0,0 l/m 0 min 2 min 0,0 UV-I 32 W/m 0,0 km/h (0 Bft)
14.11.2013 13:56 5,5 C 4,4 C 98 % 1017,8 hPa 0,0 l/m 0 min 2 min 0,0 UV-I 28 W/m 2,6 km/h (1 Bft)
14.11.2013 13:58 5,5 C 4,4 C 98 % 1017,7 hPa 0,0 l/m 0 min 2 min 0,0 UV-I 25 W/m 5,1 km/h (1 Bft)
14.11.2013 14:00 5,5 C 4,4 C 98 % 1017,8 hPa 0,0 l/m 0 min 0 min 0,0 UV-I 25 W/m 10,3 km/h (2 Bft)
14.11.2013 14:02 5,5 C 4,4 C 98 % 1017,7 hPa 0,0 l/m 0 min 0 min 0,0 UV-I 25 W/m 0,0 km/h (0 Bft)
14.11.2013 14:04 5,5 C 4,4 C 98 % 1017,8 hPa 0,0 l/m 0 min 0 min 0,0 UV-I 23 W/m 0,0 km/h (0 Bft)
14.11.2013 14:06 5,5 C 4,4 C 98 % 1017,7 hPa 0,0 l/m 0 min 0 min 0,0 UV-I 23 W/m 0,0 km/h (0 Bft)
14.11.2013 14:08 5,5 C 4,4 C 98 % 1017,7 hPa 0,0 l/m 0 min 0 min 0,0 UV-I 21 W/m 2,6 km/h (1 Bft)
14.11.2013 14:10 5,5 C 4,4 C 98 % 1017,7 hPa 0,0 l/m 0 min 0 min 0,0 UV-I 21 W/m 0,0 km/h (0 Bft)
14.11.2013 14:12 5,5 C 4,4 C 98 % 1017,7 hPa 0,0 l/m 0 min 0 min 0,0 UV-I 21 W/m 0,0 km/h (0 Bft)
14.11.2013 14:14 5,6 C 4,4 C 98 % 1017,7 hPa 0,0 l/m 0 min 0 min 0,0 UV-I 21 W/m 0,0 km/h (0 Bft)
14.11.2013 14:16 5,6 C 4,4 C 98 % 1017,7 hPa 0,0 l/m 0 min 0 min 0,0 UV-I 21 W/m 2,6 km/h (1 Bft)
14.11.2013 14:18 5,6 C 4,4 C 98 % 1017,7 hPa 0,0 l/m 0 min 0 min 0,0 UV-I 21 W/m 0,0 km/h (0 Bft)
14.11.2013 14:20 5,6 C 4,4 C 98 % 1017,7 hPa 0,0 l/m 0 min 2 min 0,0 UV-I 19 W/m 0,0 km/h (0 Bft)
14.11.2013 14:22 5,6 C 4,4 C 98 % 1017,7 hPa 0,0 l/m 0 min 0 min 0,0 UV-I 19 W/m 7,7 km/h (2 Bft)
14.11.2013 14:25 5,6 C 4,4 C 98 % 1017,6 hPa 0,0 l/m 0 min 0 min 0,0 UV-I 19 W/m 7,7 km/h (2 Bft)
14.11.2013 14:30 5,6 C 4,4 C 98 % 1017,6 hPa 0,0 l/m 0 min 0 min 0,0 UV-I 19 W/m 5,1 km/h (1 Bft)
14.11.2013 14:32 5,6 C 4,4 C 98 % 1017,6 hPa 0,0 l/m 0 min 0 min 0,0 UV-I 21 W/m 0,0 km/h (0 Bft)
14.11.2013 14:34 5,6 C 4,4 C 98 % 1017,6 hPa 0,0 l/m 0 min 0 min 0,0 UV-I 21 W/m 0,0 km/h (0 Bft)
14.11.2013 14:36 5,6 C 4,4 C 98 % 1017,5 hPa 0,0 l/m 0 min 0 min 0,0 UV-I 23 W/m 2,6 km/h (1 Bft)
14.11.2013 14:38 5,6 C 5,0 C 98 % 1017,5 hPa 0,0 l/m 0 min 0 min 0,0 UV-I 23 W/m 10,3 km/h (2 Bft)
14.11.2013 14:40 5,7 C 5,0 C 98 % 1017,5 hPa 0,0 l/m 0 min 0 min 0,0 UV-I 23 W/m 0,0 km/h (0 Bft)
14.11.2013 14:42 5,6 C 4,4 C 98 % 1017,5 hPa 0,0 l/m 0 min 0 min 0,0 UV-I 21 W/m 5,1 km/h (1 Bft)
14.11.2013 14:44 5,6 C 4,4 C 98 % 1017,5 hPa 0,0 l/m 0 min 2 min 0,0 UV-I 19 W/m 7,7 km/h (2 Bft)
14.11.2013 14:46 5,6 C 4,4 C 98 % 1017,5 hPa 0,0 l/m 0 min 2 min 0,0 UV-I 19 W/m 2,6 km/h (1 Bft)
14.11.2013 14:48 5,6 C 4,4 C 98 % 1017,5 hPa 0,0 l/m 0 min 0 min 0,0 UV-I 19 W/m 0,0 km/h (0 Bft)
14.11.2013 14:50 5,6 C 4,4 C 98 % 1017,4 hPa 0,0 l/m 0 min 0 min 0,0 UV-I 19 W/m 10,3 km/h (2 Bft)
14.11.2013 14:52 5,6 C 4,4 C 98 % 1017,5 hPa 0,0 l/m 0 min 0 min 0,0 UV-I 18 W/m 0,0 km/h (0 Bft)
14.11.2013 14:54 5,6 C 4,4 C 98 % 1017,5 hPa 0,0 l/m 0 min 0 min 0,0 UV-I 18 W/m 0,0 km/h (0 Bft)
14.11.2013 14:56 5,7 C 4,4 C 98 % 1017,5 hPa 0,0 l/m 0 min 0 min 0,0 UV-I 16 W/m 0,0 km/h (0 Bft)
14.11.2013 14:58 5,7 C 4,4 C 98 % 1017,5 hPa 0,0 l/m 0 min 0 min 0,0 UV-I 16 W/m 0,0 km/h (0 Bft)
14.11.2013 15:00 5,7 C 4,4 C 98 % 1017,5 hPa 0,0 l/m 0 min 0 min 0,0 UV-I 16 W/m 0,0 km/h (0 Bft)
14.11.2013 15:02 5,7 C 4,4 C 98 % 1017,4 hPa 0,0 l/m 0 min 0 min 0,0 UV-I 14 W/m 0,0 km/h (0 Bft)
14.11.2013 15:04 5,7 C 4,4 C 98 % 1017,5 hPa 0,0 l/m 0 min 0 min 0,0 UV-I 14 W/m 0,0 km/h (0 Bft)
14.11.2013 15:06 5,7 C 4,4 C 98 % 1017,5 hPa 0,0 l/m 0 min 0 min 0,0 UV-I 12 W/m 0,0 km/h (0 Bft)
14.11.2013 15:08 5,7 C 4,4 C 98 % 1017,5 hPa 0,0 l/m 0 min 0 min 0,0 UV-I 12 W/m 0,0 km/h (0 Bft)
14.11.2013 15:10 5,7 C 4,4 C 98 % 1017,5 hPa 0,0 l/m 0 min 0 min 0,0 UV-I 11 W/m 7,7 km/h (2 Bft)
14.11.2013 15:12 5,7 C 4,4 C 98 % 1017,6 hPa 0,0 l/m 0 min 0 min 0,0 UV-I 11 W/m 7,7 km/h (2 Bft)
14.11.2013 15:14 5,7 C 4,4 C 98 % 1017,5 hPa 0,0 l/m 0 min 0 min 0,0 UV-I 9 W/m 0,0 km/h (0 Bft)
14.11.2013 15:16 5,7 C 4,4 C 98 % 1017,6 hPa 0,0 l/m 0 min 0 min 0,0 UV-I 9 W/m 0,0 km/h (0 Bft)
14.11.2013 15:18 5,7 C 4,4 C 98 % 1017,6 hPa 0,0 l/m 0 min 0 min 0,0 UV-I 9 W/m 0,0 km/h (0 Bft)
14.11.2013 15:20 5,7 C 4,4 C 98 % 1017,6 hPa 0,0 l/m 0 min 0 min 0,0 UV-I 9 W/m 2,6 km/h (1 Bft)
14.11.2013 15:22 5,7 C 4,4 C 98 % 1017,6 hPa 0,0 l/m 0 min 0 min 0,0 UV-I 9 W/m 7,7 km/h (2 Bft)
14.11.2013 15:24 5,7 C 4,4 C 98 % 1017,6 hPa 0,0 l/m 0 min 0 min 0,0 UV-I 9 W/m 5,1 km/h (1 Bft)
14.11.2013 15:26 5,7 C 4,4 C 98 % 1017,5 hPa 0,0 l/m 0 min 0 min 0,0 UV-I 7 W/m 0,0 km/h (0 Bft)
14.11.2013 15:28 5,7 C 4,4 C 98 % 1017,5 hPa 0,0 l/m 0 min 2 min 0,0 UV-I 7 W/m 7,7 km/h (2 Bft)
14.11.2013 15:30 5,7 C 4,4 C 98 % 1017,5 hPa 0,0 l/m 0 min 2 min 0,0 UV-I 7 W/m 0,0 km/h (0 Bft)
14.11.2013 15:32 5,7 C 4,4 C 98 % 1017,5 hPa 0,0 l/m 0 min 0 min 0,0 UV-I 7 W/m 0,0 km/h (0 Bft)
14.11.2013 15:34 5,7 C 4,4 C 98 % 1017,5 hPa 0,0 l/m 0 min 0 min 0,0 UV-I 7 W/m 0,0 km/h (0 Bft)
14.11.2013 15:36 5,7 C 4,4 C 98 % 1017,6 hPa 0,0 l/m 0 min 0 min 0,0 UV-I 7 W/m 0,0 km/h (0 Bft)
14.11.2013 15:38 5,7 C 4,4 C 98 % 1017,5 hPa 0,0 l/m 0 min 0 min 0,0 UV-I 5 W/m 0,0 km/h (0 Bft)
14.11.2013 15:40 5,7 C 4,4 C 98 % 1017,5 hPa 0,0 l/m 0 min 0 min 0,0 UV-I 5 W/m 0,0 km/h (0 Bft)
14.11.2013 15:42 5,7 C 4,4 C 98 % 1017,6 hPa 0,0 l/m 0 min 0 min 0,0 UV-I 5 W/m 0,0 km/h (0 Bft)
14.11.2013 15:44 5,7 C 4,4 C 98 % 1017,6 hPa 0,0 l/m 0 min 0 min 0,0 UV-I 5 W/m 2,6 km/h (1 Bft)
14.11.2013 15:46 5,7 C 4,4 C 98 % 1017,6 hPa 0,0 l/m 0 min 0 min 0,0 UV-I 5 W/m 0,0 km/h (0 Bft)
14.11.2013 15:48 5,7 C 4,4 C 98 % 1017,6 hPa 0,0 l/m 0 min 0 min 0,0 UV-I 5 W/m 0,0 km/h (0 Bft)
14.11.2013 15:50 5,7 C 4,4 C 98 % 1017,6 hPa 0,0 l/m 0 min 2 min 0,0 UV-I 5 W/m 10,3 km/h (2 Bft)
14.11.2013 15:52 5,7 C 4,4 C 98 % 1017,5 hPa 0,0 l/m 0 min 0 min 0,0 UV-I 5 W/m 7,7 km/h (2 Bft)
14.11.2013 15:54 5,7 C 4,4 C 98 % 1017,5 hPa 0,0 l/m 0 min 2 min 0,0 UV-I 5 W/m 0,0 km/h (0 Bft)
14.11.2013 15:56 5,7 C 4,4 C 98 % 1017,5 hPa 0,0 l/m 0 min 0 min 0,0 UV-I 5 W/m 7,7 km/h (2 Bft)
14.11.2013 15:58 5,7 C 4,4 C 98 % 1017,5 hPa 0,0 l/m 0 min 2 min 0,0 UV-I 5 W/m 0,0 km/h (0 Bft)
14.11.2013 16:00 5,7 C 4,4 C 98 % 1017,5 hPa 0,0 l/m 0 min 0 min 0,0 UV-I 5 W/m 0,0 km/h (0 Bft)
14.11.2013 16:02 5,7 C 4,4 C 98 % 1017,5 hPa 0,0 l/m 0 min 0 min 0,0 UV-I 5 W/m 7,7 km/h (2 Bft)
14.11.2013 16:04 5,7 C 4,4 C 98 % 1017,5 hPa 0,0 l/m 0 min 0 min 0,0 UV-I 5 W/m 2,6 km/h (1 Bft)
14.11.2013 16:06 5,7 C 4,4 C 98 % 1017,5 hPa 0,0 l/m 0 min 0 min 0,0 UV-I 5 W/m 0,0 km/h (0 Bft)
14.11.2013 16:08 5,7 C 4,4 C 98 % 1017,5 hPa 0,0 l/m 0 min 0 min 0,0 UV-I 5 W/m 0,0 km/h (0 Bft)
14.11.2013 16:10 5,7 C 4,4 C 98 % 1017,5 hPa 0,0 l/m 0 min 0 min 0,0 UV-I 5 W/m 0,0 km/h (0 Bft)
14.11.2013 16:12 5,7 C 4,4 C 98 % 1017,5 hPa 0,0 l/m 0 min 0 min 0,0 UV-I 0 W/m 0,0 km/h (0 Bft)
14.11.2013 16:14 5,7 C 4,4 C 98 % 1017,5 hPa 0,0 l/m 0 min 0 min 0,0 UV-I 0 W/m 0,0 km/h (0 Bft)
14.11.2013 16:16 5,7 C 4,4 C 98 % 1017,5 hPa 0,0 l/m 0 min 0 min 0,0 UV-I 0 W/m 0,0 km/h (0 Bft)
14.11.2013 16:18 5,7 C 4,4 C 98 % 1017,5 hPa 0,0 l/m 0 min 0 min 0,0 UV-I 0 W/m 0,0 km/h (0 Bft)
14.11.2013 16:20 5,7 C 4,4 C 98 % 1017,5 hPa 0,0 l/m 0 min 0 min 0,0 UV-I 0 W/m 0,0 km/h (0 Bft)
14.11.2013 16:22 5,7 C 4,4 C 98 % 1017,5 hPa 0,0 l/m 0 min 0 min 0,0 UV-I 0 W/m 0,0 km/h (0 Bft)
14.11.2013 16:24 5,7 C 4,4 C 98 % 1017,5 hPa 0,0 l/m 0 min 0 min 0,0 UV-I 0 W/m 0,0 km/h (0 Bft)
14.11.2013 16:26 5,7 C 5,0 C 98 % 1017,5 hPa 0,0 l/m 0 min 0 min 0,0 UV-I 0 W/m 0,0 km/h (0 Bft)
14.11.2013 16:28 5,7 C 5,0 C 98 % 1017,6 hPa 0,0 l/m 0 min 0 min 0,0 UV-I 0 W/m 0,0 km/h (0 Bft)
14.11.2013 16:30 5,7 C 5,0 C 98 % 1017,6 hPa 0,0 l/m 0 min 0 min 0,0 UV-I 0 W/m 0,0 km/h (0 Bft)
14.11.2013 16:32 5,7 C 5,0 C 98 % 1017,5 hPa 0,0 l/m 0 min 0 min 0,0 UV-I 0 W/m 0,0 km/h (0 Bft)
14.11.2013 16:34 5,7 C 4,4 C 98 % 1017,6 hPa 0,0 l/m 0 min 0 min 0,0 UV-I 0 W/m 0,0 km/h (0 Bft)
14.11.2013 16:36 5,7 C 4,4 C 98 % 1017,5 hPa 0,0 l/m 0 min 0 min 0,0 UV-I 0 W/m 5,1 km/h (1 Bft)
14.11.2013 16:38 5,7 C 4,4 C 98 % 1017,5 hPa 0,0 l/m 0 min 0 min 0,0 UV-I 0 W/m 0,0 km/h (0 Bft)
14.11.2013 16:40 5,7 C 4,4 C 98 % 1017,5 hPa 0,0 l/m 0 min 0 min 0,0 UV-I 0 W/m 0,0 km/h (0 Bft)
14.11.2013 16:42 5,7 C 4,4 C 98 % 1017,5 hPa 0,0 l/m 0 min 0 min 0,0 UV-I 0 W/m 0,0 km/h (0 Bft)
14.11.2013 16:44 5,7 C 4,4 C 98 % 1017,5 hPa 0,0 l/m 0 min 0 min 0,0 UV-I 0 W/m 0,0 km/h (0 Bft)
14.11.2013 16:46 5,7 C 4,4 C 98 % 1017,5 hPa 0,0 l/m 0 min 0 min 0,0 UV-I 0 W/m 2,6 km/h (1 Bft)
14.11.2013 16:48 5,7 C 5,0 C 98 % 1017,5 hPa 0,0 l/m 0 min 0 min 0,0 UV-I 0 W/m 0,0 km/h (0 Bft)
14.11.2013 16:50 5,8 C 5,0 C 98 % 1017,6 hPa 0,0 l/m 0 min 0 min 0,0 UV-I 0 W/m 0,0 km/h (0 Bft)
14.11.2013 16:52 5,7 C 5,0 C 98 % 1017,6 hPa 0,0 l/m 0 min 0 min 0,0 UV-I 0 W/m 0,0 km/h (0 Bft)
14.11.2013 16:54 5,7 C 5,0 C 98 % 1017,6 hPa 0,0 l/m 0 min 0 min 0,0 UV-I 0 W/m 0,0 km/h (0 Bft)
14.11.2013 16:56 5,8 C 4,4 C 98 % 1017,6 hPa 0,0 l/m 0 min 0 min 0,0 UV-I 0 W/m 0,0 km/h (0 Bft)
14.11.2013 16:58 5,8 C 4,4 C 98 % 1017,6 hPa 0,0 l/m 0 min 0 min 0,0 UV-I 0 W/m 0,0 km/h (0 Bft)
14.11.2013 17:00 5,7 C 4,4 C 98 % 1017,6 hPa 0,0 l/m 0 min 0 min 0,0 UV-I 0 W/m 7,7 km/h (2 Bft)
14.11.2013 17:02 5,7 C 4,4 C 98 % 1017,7 hPa 0,0 l/m 0 min 0 min 0,0 UV-I 0 W/m 2,6 km/h (1 Bft)
14.11.2013 17:04 5,8 C 4,4 C 98 % 1017,6 hPa 0,0 l/m 0 min 0 min 0,0 UV-I 0 W/m 0,0 km/h (0 Bft)
14.11.2013 17:06 5,7 C 4,4 C 98 % 1017,7 hPa 0,0 l/m 0 min 0 min 0,0 UV-I 0 W/m 0,0 km/h (0 Bft)
14.11.2013 17:08 5,7 C 4,4 C 98 % 1017,7 hPa 0,0 l/m 0 min 0 min 0,0 UV-I 0 W/m 0,0 km/h (0 Bft)
14.11.2013 17:10 5,7 C 4,4 C 98 % 1017,7 hPa 0,0 l/m 0 min 0 min 0,0 UV-I 0 W/m 0,0 km/h (0 Bft)
14.11.2013 17:12 5,7 C 4,4 C 98 % 1017,8 hPa 0,0 l/m 0 min 0 min 0,0 UV-I 0 W/m 0,0 km/h (0 Bft)
14.11.2013 17:14 5,7 C 4,4 C 98 % 1017,8 hPa 0,0 l/m 0 min 0 min 0,0 UV-I 0 W/m 0,0 km/h (0 Bft)
14.11.2013 17:16 5,7 C 4,4 C 98 % 1017,8 hPa 0,0 l/m 0 min 0 min 0,0 UV-I 0 W/m 0,0 km/h (0 Bft)
14.11.2013 17:18 5,7 C 5,0 C 98 % 1017,8 hPa 0,0 l/m 0 min 0 min 0,0 UV-I 0 W/m 0,0 km/h (0 Bft)
14.11.2013 17:20 5,7 C 4,4 C 98 % 1017,8 hPa 0,0 l/m 0 min 2 min 0,0 UV-I 0 W/m 0,0 km/h (0 Bft)
14.11.2013 17:22 5,7 C 4,4 C 98 % 1017,8 hPa 0,0 l/m 0 min 2 min 0,0 UV-I 0 W/m 0,0 km/h (0 Bft)
14.11.2013 17:24 5,7 C 5,0 C 98 % 1017,8 hPa 0,0 l/m 0 min 2 min 0,0 UV-I 0 W/m 0,0 km/h (0 Bft)
14.11.2013 17:26 5,7 C 4,4 C 98 % 1017,9 hPa 0,0 l/m 0 min 0 min 0,0 UV-I 0 W/m 5,1 km/h (1 Bft)
14.11.2013 17:28 5,7 C 4,4 C 98 % 1017,9 hPa 0,0 l/m 0 min 0 min 0,0 UV-I 0 W/m 5,1 km/h (1 Bft)
14.11.2013 17:30 5,7 C 4,4 C 98 % 1017,9 hPa 0,0 l/m 0 min 0 min 0,0 UV-I 0 W/m 0,0 km/h (0 Bft)
14.11.2013 17:32 5,7 C 4,4 C 98 % 1017,9 hPa 0,0 l/m 0 min 0 min 0,0 UV-I 0 W/m 0,0 km/h (0 Bft)
14.11.2013 17:34 5,7 C 4,4 C 98 % 1017,9 hPa 0,0 l/m 0 min 0 min 0,0 UV-I 0 W/m 0,0 km/h (0 Bft)
14.11.2013 17:36 5,7 C 4,4 C 98 % 1017,9 hPa 0,0 l/m 0 min 0 min 0,0 UV-I 0 W/m 0,0 km/h (0 Bft)
14.11.2013 17:38 5,7 C 4,4 C 98 % 1017,8 hPa 0,0 l/m 0 min 0 min 0,0 UV-I 0 W/m 2,6 km/h (1 Bft)
14.11.2013 17:40 5,7 C 4,4 C 98 % 1017,8 hPa 0,0 l/m 0 min 0 min 0,0 UV-I 0 W/m 0,0 km/h (0 Bft)
14.11.2013 17:42 5,7 C 4,4 C 98 % 1017,9 hPa 0,0 l/m 0 min 0 min 0,0 UV-I 0 W/m 0,0 km/h (0 Bft)
14.11.2013 17:44 5,7 C 4,4 C 98 % 1017,9 hPa 0,0 l/m 0 min 0 min 0,0 UV-I 0 W/m 0,0 km/h (0 Bft)
14.11.2013 17:46 5,7 C 4,4 C 98 % 1017,9 hPa 0,0 l/m 0 min 0 min 0,0 UV-I 0 W/m 0,0 km/h (0 Bft)
14.11.2013 17:48 5,7 C 5,0 C 98 % 1017,9 hPa 0,0 l/m 0 min 0 min 0,0 UV-I 0 W/m 0,0 km/h (0 Bft)
14.11.2013 17:50 5,7 C 5,0 C 98 % 1017,9 hPa 0,0 l/m 0 min 0 min 0,0 UV-I 0 W/m 0,0 km/h (0 Bft)
14.11.2013 17:52 5,7 C 4,4 C 98 % 1017,9 hPa 0,0 l/m 0 min 0 min 0,0 UV-I 0 W/m 0,0 km/h (0 Bft)
14.11.2013 17:54 5,7 C 5,0 C 98 % 1017,9 hPa 0,0 l/m 0 min 0 min 0,0 UV-I 0 W/m 0,0 km/h (0 Bft)
14.11.2013 17:56 5,7 C 5,0 C 98 % 1017,9 hPa 0,0 l/m 0 min 0 min 0,0 UV-I 0 W/m 0,0 km/h (0 Bft)
14.11.2013 17:58 5,7 C 5,0 C 98 % 1017,8 hPa 0,0 l/m 0 min 0 min 0,0 UV-I 0 W/m 0,0 km/h (0 Bft)
14.11.2013 18:00 5,7 C 5,0 C 98 % 1017,9 hPa 0,0 l/m 0 min 0 min 0,0 UV-I 0 W/m 0,0 km/h (0 Bft)
14.11.2013 18:02 5,7 C 5,0 C 98 % 1018,0 hPa 0,0 l/m 0 min 0 min 0,0 UV-I 0 W/m 0,0 km/h (0 Bft)
14.11.2013 18:04 5,7 C 5,0 C 98 % 1018,0 hPa 0,0 l/m 0 min 0 min 0,0 UV-I 0 W/m 0,0 km/h (0 Bft)
14.11.2013 18:06 5,7 C 5,0 C 98 % 1018,0 hPa 0,0 l/m 0 min 0 min 0,0 UV-I 0 W/m 0,0 km/h (0 Bft)
14.11.2013 18:08 5,7 C 5,0 C 98 % 1017,9 hPa 0,0 l/m 0 min 0 min 0,0 UV-I 0 W/m 0,0 km/h (0 Bft)
14.11.2013 18:10 5,7 C 5,0 C 98 % 1017,9 hPa 0,0 l/m 0 min 0 min 0,0 UV-I 0 W/m 0,0 km/h (0 Bft)
14.11.2013 18:12 5,7 C 5,0 C 98 % 1018,0 hPa 0,0 l/m 0 min 0 min 0,0 UV-I 0 W/m 0,0 km/h (0 Bft)
14.11.2013 18:14 5,7 C 5,0 C 98 % 1018,0 hPa 0,0 l/m 0 min 0 min 0,0 UV-I 0 W/m 0,0 km/h (0 Bft)
14.11.2013 18:16 5,7 C 5,0 C 98 % 1018,1 hPa 0,0 l/m 0 min 0 min 0,0 UV-I 0 W/m 0,0 km/h (0 Bft)
14.11.2013 18:18 5,7 C 5,0 C 98 % 1018,1 hPa 0,0 l/m 0 min 0 min 0,0 UV-I 0 W/m 0,0 km/h (0 Bft)
14.11.2013 18:20 5,7 C 5,0 C 98 % 1018,1 hPa 0,0 l/m 0 min 0 min 0,0 UV-I 0 W/m 0,0 km/h (0 Bft)
14.11.2013 18:22 5,7 C 5,0 C 98 % 1018,1 hPa 0,0 l/m 0 min 0 min 0,0 UV-I 0 W/m 0,0 km/h (0 Bft)
14.11.2013 18:24 5,7 C 5,0 C 98 % 1018,1 hPa 0,0 l/m 0 min 0 min 0,0 UV-I 0 W/m 0,0 km/h (0 Bft)
14.11.2013 18:26 5,7 C 5,0 C 98 % 1018,1 hPa 0,0 l/m 0 min 0 min 0,0 UV-I 0 W/m 0,0 km/h (0 Bft)
14.11.2013 18:28 5,8 C 5,0 C 98 % 1018,2 hPa 0,0 l/m 0 min 0 min 0,0 UV-I 0 W/m 0,0 km/h (0 Bft)
14.11.2013 18:30 5,7 C 5,0 C 98 % 1018,2 hPa 0,0 l/m 0 min 0 min 0,0 UV-I 0 W/m 0,0 km/h (0 Bft)
14.11.2013 18:32 5,8 C 5,0 C 98 % 1018,3 hPa 0,0 l/m 0 min 0 min 0,0 UV-I 0 W/m 0,0 km/h (0 Bft)
14.11.2013 18:34 5,7 C 5,0 C 98 % 1018,2 hPa 0,0 l/m 0 min 0 min 0,0 UV-I 0 W/m 0,0 km/h (0 Bft)
14.11.2013 18:36 5,8 C 5,0 C 98 % 1018,3 hPa 0,0 l/m 0 min 0 min 0,0 UV-I 0 W/m 0,0 km/h (0 Bft)
14.11.2013 18:38 5,8 C 5,0 C 98 % 1018,3 hPa 0,0 l/m 0 min 0 min 0,0 UV-I 0 W/m 0,0 km/h (0 Bft)
14.11.2013 18:40 5,8 C 5,0 C 98 % 1018,3 hPa 0,0 l/m 0 min 0 min 0,0 UV-I 0 W/m 0,0 km/h (0 Bft)
14.11.2013 18:42 5,8 C 5,0 C 98 % 1018,3 hPa 0,0 l/m 0 min 0 min 0,0 UV-I 0 W/m 0,0 km/h (0 Bft)
14.11.2013 18:44 5,7 C 5,0 C 98 % 1018,2 hPa 0,0 l/m 0 min 0 min 0,0 UV-I 0 W/m 0,0 km/h (0 Bft)
14.11.2013 18:46 5,8 C 5,0 C 98 % 1018,3 hPa 0,0 l/m 0 min 0 min 0,0 UV-I 0 W/m 0,0 km/h (0 Bft)
14.11.2013 18:48 5,8 C 5,0 C 98 % 1018,3 hPa 0,0 l/m 0 min 0 min 0,0 UV-I 0 W/m 0,0 km/h (0 Bft)
14.11.2013 18:50 5,8 C 5,0 C 98 % 1018,3 hPa 0,0 l/m 0 min 0 min 0,0 UV-I 0 W/m 0,0 km/h (0 Bft)
14.11.2013 18:52 5,8 C 5,0 C 98 % 1018,2 hPa 0,0 l/m 0 min 0 min 0,0 UV-I 0 W/m 0,0 km/h (0 Bft)
14.11.2013 18:54 5,8 C 5,0 C 98 % 1018,2 hPa 0,0 l/m 0 min 0 min 0,0 UV-I 0 W/m 0,0 km/h (0 Bft)
14.11.2013 18:56 5,8 C 5,0 C 98 % 1018,2 hPa 0,0 l/m 0 min 0 min 0,0 UV-I 0 W/m 0,0 km/h (0 Bft)
14.11.2013 18:58 5,8 C 5,0 C 98 % 1018,2 hPa 0,0 l/m 0 min 0 min 0,0 UV-I 0 W/m 0,0 km/h (0 Bft)
14.11.2013 19:00 5,8 C 5,0 C 98 % 1018,2 hPa 0,0 l/m 0 min 0 min 0,0 UV-I 0 W/m 0,0 km/h (0 Bft)
14.11.2013 19:02 5,8 C 5,0 C 98 % 1018,3 hPa 0,0 l/m 0 min 0 min 0,0 UV-I 0 W/m 0,0 km/h (0 Bft)
14.11.2013 19:04 5,8 C 5,0 C 98 % 1018,4 hPa 0,0 l/m 0 min 0 min 0,0 UV-I 0 W/m 0,0 km/h (0 Bft)
14.11.2013 19:06 5,8 C 5,0 C 98 % 1018,4 hPa 0,0 l/m 0 min 0 min 0,0 UV-I 0 W/m 0,0 km/h (0 Bft)
14.11.2013 19:08 5,8 C 5,0 C 98 % 1018,4 hPa 0,0 l/m 0 min 0 min 0,0 UV-I 0 W/m 0,0 km/h (0 Bft)
14.11.2013 19:10 5,8 C 5,0 C 98 % 1018,4 hPa 0,0 l/m 0 min 0 min 0,0 UV-I 0 W/m 0,0 km/h (0 Bft)
14.11.2013 19:12 5,8 C 5,0 C 98 % 1018,5 hPa 0,0 l/m 0 min 0 min 0,0 UV-I 0 W/m 0,0 km/h (0 Bft)
14.11.2013 19:14 5,8 C 5,0 C 98 % 1018,5 hPa 0,0 l/m 0 min 0 min 0,0 UV-I 0 W/m 0,0 km/h (0 Bft)
14.11.2013 19:16 5,8 C 5,0 C 98 % 1018,5 hPa 0,0 l/m 0 min 0 min 0,0 UV-I 0 W/m 0,0 km/h (0 Bft)
14.11.2013 19:18 5,8 C 5,0 C 98 % 1018,5 hPa 0,0 l/m 0 min 0 min 0,0 UV-I 0 W/m 0,0 km/h (0 Bft)
14.11.2013 19:20 5,8 C 5,0 C 98 % 1018,5 hPa 0,0 l/m 0 min 0 min 0,0 UV-I 0 W/m 0,0 km/h (0 Bft)
14.11.2013 19:22 5,8 C 5,0 C 98 % 1018,5 hPa 0,0 l/m 0 min 0 min 0,0 UV-I 0 W/m 0,0 km/h (0 Bft)
14.11.2013 19:24 5,8 C 5,0 C 98 % 1018,6 hPa 0,0 l/m 0 min 0 min 0,0 UV-I 0 W/m 0,0 km/h (0 Bft)
14.11.2013 19:26 5,8 C 5,0 C 98 % 1018,7 hPa 0,0 l/m 0 min 0 min 0,0 UV-I 0 W/m 0,0 km/h (0 Bft)
14.11.2013 19:28 5,8 C 5,0 C 98 % 1018,6 hPa 0,0 l/m 0 min 0 min 0,0 UV-I 0 W/m 0,0 km/h (0 Bft)
14.11.2013 19:30 5,8 C 5,0 C 98 % 1018,6 hPa 0,0 l/m 0 min 0 min 0,0 UV-I 0 W/m 0,0 km/h (0 Bft)
14.11.2013 19:32 5,8 C 5,0 C 98 % 1018,6 hPa 0,0 l/m 0 min 0 min 0,0 UV-I 0 W/m 0,0 km/h (0 Bft)
14.11.2013 19:34 5,8 C 5,0 C 98 % 1018,6 hPa 0,0 l/m 0 min 0 min 0,0 UV-I 0 W/m 0,0 km/h (0 Bft)
14.11.2013 19:36 5,8 C 5,0 C 98 % 1018,7 hPa 0,0 l/m 0 min 0 min 0,0 UV-I 0 W/m 0,0 km/h (0 Bft)
14.11.2013 19:38 5,8 C 5,0 C 98 % 1018,7 hPa 0,0 l/m 0 min 0 min 0,0 UV-I 0 W/m 0,0 km/h (0 Bft)
14.11.2013 19:40 5,8 C 5,0 C 98 % 1018,7 hPa 0,0 l/m 0 min 0 min 0,0 UV-I 0 W/m 0,0 km/h (0 Bft)
14.11.2013 19:42 5,8 C 5,0 C 98 % 1018,7 hPa 0,0 l/m 0 min 0 min 0,0 UV-I 0 W/m 0,0 km/h (0 Bft)
14.11.2013 19:44 5,8 C 5,0 C 98 % 1018,8 hPa 0,0 l/m 0 min 0 min 0,0 UV-I 0 W/m 0,0 km/h (0 Bft)
14.11.2013 19:46 5,8 C 5,0 C 98 % 1018,8 hPa 0,0 l/m 0 min 0 min 0,0 UV-I 0 W/m 0,0 km/h (0 Bft)
14.11.2013 19:48 5,8 C 5,0 C 98 % 1018,8 hPa 0,0 l/m 0 min 0 min 0,0 UV-I 0 W/m 0,0 km/h (0 Bft)
14.11.2013 19:50 5,8 C 5,0 C 98 % 1018,8 hPa 0,0 l/m 0 min 0 min 0,0 UV-I 0 W/m 0,0 km/h (0 Bft)
14.11.2013 19:52 5,8 C 5,0 C 98 % 1018,8 hPa 0,0 l/m 0 min 0 min 0,0 UV-I 0 W/m 0,0 km/h (0 Bft)
14.11.2013 19:54 5,8 C 5,0 C 98 % 1018,7 hPa 0,0 l/m 0 min 0 min 0,0 UV-I 0 W/m 0,0 km/h (0 Bft)
14.11.2013 19:56 5,8 C 5,0 C 98 % 1018,9 hPa 0,0 l/m 0 min 0 min 0,0 UV-I 0 W/m 0,0 km/h (0 Bft)
14.11.2013 19:58 5,8 C 5,0 C 98 % 1018,8 hPa 0,0 l/m 0 min 0 min 0,0 UV-I 0 W/m 0,0 km/h (0 Bft)
14.11.2013 20:00 5,8 C 5,0 C 98 % 1018,9 hPa 0,0 l/m 0 min 0 min 0,0 UV-I 0 W/m 0,0 km/h (0 Bft)
14.11.2013 20:02 5,8 C 5,0 C 98 % 1018,9 hPa 0,0 l/m 0 min 0 min 0,0 UV-I 0 W/m 0,0 km/h (0 Bft)
14.11.2013 20:04 5,8 C 5,0 C 98 % 1018,9 hPa 0,0 l/m 0 min 0 min 0,0 UV-I 0 W/m 0,0 km/h (0 Bft)
14.11.2013 20:06 5,8 C 5,0 C 98 % 1018,9 hPa 0,0 l/m 0 min 0 min 0,0 UV-I 0 W/m 0,0 km/h (0 Bft)
14.11.2013 20:08 5,8 C 5,0 C 98 % 1018,9 hPa 0,0 l/m 0 min 0 min 0,0 UV-I 0 W/m 0,0 km/h (0 Bft)
14.11.2013 20:10 5,9 C 5,0 C 98 % 1018,9 hPa 0,0 l/m 0 min 0 min 0,0 UV-I 0 W/m 0,0 km/h (0 Bft)
14.11.2013 20:12 5,9 C 5,0 C 98 % 1019,0 hPa 0,0 l/m 0 min 0 min 0,0 UV-I 0 W/m 0,0 km/h (0 Bft)
14.11.2013 20:14 5,9 C 5,0 C 98 % 1019,0 hPa 0,0 l/m 0 min 0 min 0,0 UV-I 0 W/m 0,0 km/h (0 Bft)
14.11.2013 20:16 5,9 C 5,0 C 98 % 1019,1 hPa 0,0 l/m 0 min 0 min 0,0 UV-I 0 W/m 0,0 km/h (0 Bft)
14.11.2013 20:18 5,9 C 5,0 C 98 % 1019,0 hPa 0,0 l/m 0 min 0 min 0,0 UV-I 0 W/m 0,0 km/h (0 Bft)
14.11.2013 20:20 5,9 C 5,0 C 98 % 1019,1 hPa 0,0 l/m 0 min 0 min 0,0 UV-I 0 W/m 0,0 km/h (0 Bft)
14.11.2013 20:22 5,9 C 5,0 C 98 % 1019,1 hPa 0,0 l/m 0 min 0 min 0,0 UV-I 0 W/m 0,0 km/h (0 Bft)
14.11.2013 20:24 5,9 C 5,0 C 98 % 1019,1 hPa 0,0 l/m 0 min 0 min 0,0 UV-I 0 W/m 0,0 km/h (0 Bft)
14.11.2013 20:26 5,9 C 5,0 C 98 % 1019,1 hPa 0,0 l/m 0 min 0 min 0,0 UV-I 0 W/m 0,0 km/h (0 Bft)
14.11.2013 20:28 5,9 C 5,0 C 98 % 1019,2 hPa 0,0 l/m 0 min 0 min 0,0 UV-I 0 W/m 0,0 km/h (0 Bft)
14.11.2013 20:30 5,9 C 5,0 C 98 % 1019,3 hPa 0,0 l/m 0 min 0 min 0,0 UV-I 0 W/m 0,0 km/h (0 Bft)
14.11.2013 20:32 5,9 C 5,0 C 98 % 1019,3 hPa 0,0 l/m 0 min 0 min 0,0 UV-I 0 W/m 0,0 km/h (0 Bft)
14.11.2013 20:34 5,9 C 5,0 C 98 % 1019,3 hPa 0,0 l/m 0 min 0 min 0,0 UV-I 0 W/m 0,0 km/h (0 Bft)
14.11.2013 20:36 5,9 C 5,0 C 98 % 1019,3 hPa 0,0 l/m 0 min 0 min 0,0 UV-I 0 W/m 0,0 km/h (0 Bft)
14.11.2013 20:38 5,9 C 5,0 C 98 % 1019,3 hPa 0,0 l/m 0 min 0 min 0,0 UV-I 0 W/m 0,0 km/h (0 Bft)
14.11.2013 20:40 5,9 C 5,0 C 98 % 1019,3 hPa 0,0 l/m 0 min 0 min 0,0 UV-I 0 W/m 0,0 km/h (0 Bft)
14.11.2013 20:42 5,9 C 5,0 C 98 % 1019,4 hPa 0,0 l/m 0 min 0 min 0,0 UV-I 0 W/m 0,0 km/h (0 Bft)
14.11.2013 20:44 5,9 C 5,0 C 98 % 1019,4 hPa 0,0 l/m 0 min 2 min 0,0 UV-I 0 W/m 0,0 km/h (0 Bft)
14.11.2013 20:46 5,9 C 5,0 C 98 % 1019,3 hPa 0,0 l/m 0 min 0 min 0,0 UV-I 0 W/m 0,0 km/h (0 Bft)
14.11.2013 20:48 5,9 C 5,0 C 98 % 1019,4 hPa 0,0 l/m 0 min 0 min 0,0 UV-I 0 W/m 0,0 km/h (0 Bft)
14.11.2013 20:50 5,9 C 5,0 C 98 % 1019,4 hPa 0,0 l/m 0 min 0 min 0,0 UV-I 0 W/m 0,0 km/h (0 Bft)
14.11.2013 20:52 5,9 C 5,0 C 98 % 1019,4 hPa 0,0 l/m 0 min 0 min 0,0 UV-I 0 W/m 0,0 km/h (0 Bft)
14.11.2013 20:54 5,9 C 5,0 C 98 % 1019,5 hPa 0,0 l/m 0 min 0 min 0,0 UV-I 0 W/m 0,0 km/h (0 Bft)
14.11.2013 20:56 5,9 C 5,0 C 98 % 1019,5 hPa 0,0 l/m 0 min 0 min 0,0 UV-I 0 W/m 0,0 km/h (0 Bft)
14.11.2013 20:58 5,9 C 5,0 C 98 % 1019,6 hPa 0,0 l/m 0 min 0 min 0,0 UV-I 0 W/m 0,0 km/h (0 Bft)
14.11.2013 21:00 5,9 C 5,0 C 98 % 1019,6 hPa 0,0 l/m 0 min 2 min 0,0 UV-I 0 W/m 0,0 km/h (0 Bft)
14.11.2013 21:02 5,9 C 5,0 C 98 % 1019,6 hPa 0,2 l/m 0 min 2 min 0,0 UV-I 0 W/m 0,0 km/h (0 Bft)
14.11.2013 21:04 5,9 C 5,0 C 98 % 1019,6 hPa 0,0 l/m 0 min 2 min 0,0 UV-I 0 W/m 0,0 km/h (0 Bft)
14.11.2013 21:06 5,9 C 5,0 C 98 % 1019,6 hPa 0,0 l/m 0 min 0 min 0,0 UV-I 0 W/m 0,0 km/h (0 Bft)
14.11.2013 21:08 5,9 C 5,0 C 98 % 1019,7 hPa 0,0 l/m 0 min 0 min 0,0 UV-I 0 W/m 0,0 km/h (0 Bft)
14.11.2013 21:10 5,9 C 5,0 C 98 % 1019,7 hPa 0,0 l/m 0 min 0 min 0,0 UV-I 0 W/m 0,0 km/h (0 Bft)
14.11.2013 21:12 5,9 C 5,0 C 98 % 1019,7 hPa 0,0 l/m 0 min 0 min 0,0 UV-I 0 W/m 0,0 km/h (0 Bft)
14.11.2013 21:14 5,9 C 5,0 C 98 % 1019,7 hPa 0,0 l/m 0 min 0 min 0,0 UV-I 0 W/m 0,0 km/h (0 Bft)
14.11.2013 21:16 6,0 C 5,0 C 98 % 1019,7 hPa 0,0 l/m 0 min 0 min 0,0 UV-I 0 W/m 0,0 km/h (0 Bft)
14.11.2013 21:18 6,0 C 5,0 C 98 % 1019,7 hPa 0,0 l/m 0 min 0 min 0,0 UV-I 0 W/m 0,0 km/h (0 Bft)
14.11.2013 21:20 6,0 C 5,0 C 98 % 1019,7 hPa 0,0 l/m 0 min 0 min 0,0 UV-I 0 W/m 0,0 km/h (0 Bft)
14.11.2013 21:22 6,0 C 5,0 C 98 % 1019,7 hPa 0,0 l/m 0 min 0 min 0,0 UV-I 0 W/m 0,0 km/h (0 Bft)
14.11.2013 21:24 6,0 C 5,0 C 98 % 1019,8 hPa 0,0 l/m 0 min 0 min 0,0 UV-I 0 W/m 0,0 km/h (0 Bft)
14.11.2013 21:26 6,0 C 5,0 C 98 % 1019,8 hPa 0,0 l/m 0 min 0 min 0,0 UV-I 0 W/m 0,0 km/h (0 Bft)
14.11.2013 21:28 6,0 C 5,0 C 98 % 1019,8 hPa 0,0 l/m 0 min 0 min 0,0 UV-I 0 W/m 0,0 km/h (0 Bft)
14.11.2013 21:30 6,0 C 5,0 C 98 % 1019,8 hPa 0,0 l/m 0 min 0 min 0,0 UV-I 0 W/m 0,0 km/h (0 Bft)
14.11.2013 21:32 6,0 C 5,0 C 98 % 1019,8 hPa 0,0 l/m 0 min 0 min 0,0 UV-I 0 W/m 0,0 km/h (0 Bft)
14.11.2013 21:34 6,0 C 5,0 C 98 % 1019,8 hPa 0,0 l/m 0 min 0 min 0,0 UV-I 0 W/m 0,0 km/h (0 Bft)
14.11.2013 21:36 6,0 C 5,0 C 98 % 1019,8 hPa 0,0 l/m 0 min 0 min 0,0 UV-I 0 W/m 0,0 km/h (0 Bft)
14.11.2013 21:38 6,0 C 5,0 C 98 % 1019,8 hPa 0,0 l/m 0 min 0 min 0,0 UV-I 0 W/m 0,0 km/h (0 Bft)
14.11.2013 21:40 6,0 C 5,0 C 98 % 1019,8 hPa 0,0 l/m 0 min 0 min 0,0 UV-I 0 W/m 0,0 km/h (0 Bft)
14.11.2013 21:42 6,0 C 5,0 C 98 % 1019,8 hPa 0,0 l/m 0 min 0 min 0,0 UV-I 0 W/m 0,0 km/h (0 Bft)
14.11.2013 21:44 6,0 C 5,0 C 98 % 1019,8 hPa 0,0 l/m 0 min 0 min 0,0 UV-I 0 W/m 0,0 km/h (0 Bft)
14.11.2013 21:46 6,0 C 5,0 C 98 % 1019,9 hPa 0,0 l/m 0 min 0 min 0,0 UV-I 0 W/m 0,0 km/h (0 Bft)
14.11.2013 21:48 6,0 C 5,0 C 98 % 1019,8 hPa 0,0 l/m 0 min 0 min 0,0 UV-I 0 W/m 0,0 km/h (0 Bft)
14.11.2013 21:50 6,0 C 5,0 C 98 % 1019,8 hPa 0,0 l/m 0 min 0 min 0,0 UV-I 0 W/m 0,0 km/h (0 Bft)
14.11.2013 21:52 6,0 C 5,0 C 98 % 1019,9 hPa 0,0 l/m 0 min 0 min 0,0 UV-I 0 W/m 0,0 km/h (0 Bft)
14.11.2013 21:54 6,0 C 5,0 C 98 % 1019,9 hPa 0,0 l/m 0 min 0 min 0,0 UV-I 0 W/m 0,0 km/h (0 Bft)
14.11.2013 21:56 6,0 C 5,0 C 98 % 1019,9 hPa 0,0 l/m 0 min 0 min 0,0 UV-I 0 W/m 0,0 km/h (0 Bft)
14.11.2013 21:58 6,0 C 5,0 C 98 % 1019,9 hPa 0,0 l/m 0 min 0 min 0,0 UV-I 0 W/m 0,0 km/h (0 Bft)
14.11.2013 22:00 6,0 C 5,0 C 98 % 1020,0 hPa 0,0 l/m 0 min 0 min 0,0 UV-I 0 W/m 0,0 km/h (0 Bft)
14.11.2013 22:02 6,0 C 5,0 C 98 % 1020,0 hPa 0,0 l/m 0 min 0 min 0,0 UV-I 0 W/m 0,0 km/h (0 Bft)
14.11.2013 22:04 6,0 C 5,0 C 98 % 1020,0 hPa 0,0 l/m 0 min 0 min 0,0 UV-I 0 W/m 0,0 km/h (0 Bft)
14.11.2013 22:06 6,0 C 5,0 C 98 % 1020,1 hPa 0,0 l/m 0 min 0 min 0,0 UV-I 0 W/m 0,0 km/h (0 Bft)
14.11.2013 22:08 6,0 C 5,0 C 98 % 1020,1 hPa 0,0 l/m 0 min 0 min 0,0 UV-I 0 W/m 0,0 km/h (0 Bft)
14.11.2013 22:10 6,0 C 5,0 C 98 % 1020,1 hPa 0,0 l/m 0 min 0 min 0,0 UV-I 0 W/m 0,0 km/h (0 Bft)
14.11.2013 22:12 6,0 C 5,0 C 98 % 1020,2 hPa 0,0 l/m 0 min 0 min 0,0 UV-I 0 W/m 0,0 km/h (0 Bft)
14.11.2013 22:14 6,0 C 5,0 C 98 % 1020,3 hPa 0,0 l/m 0 min 0 min 0,0 UV-I 0 W/m 0,0 km/h (0 Bft)
14.11.2013 22:16 6,0 C 5,0 C 98 % 1020,2 hPa 0,0 l/m 0 min 0 min 0,0 UV-I 0 W/m 0,0 km/h (0 Bft)
14.11.2013 22:18 6,0 C 5,0 C 98 % 1020,2 hPa 0,0 l/m 0 min 0 min 0,0 UV-I 0 W/m 0,0 km/h (0 Bft)
14.11.2013 22:20 6,0 C 5,0 C 98 % 1020,2 hPa 0,0 l/m 0 min 0 min 0,0 UV-I 0 W/m 0,0 km/h (0 Bft)
14.11.2013 22:22 6,0 C 5,0 C 98 % 1020,1 hPa 0,0 l/m 0 min 0 min 0,0 UV-I 0 W/m 0,0 km/h (0 Bft)
14.11.2013 22:24 6,0 C 5,0 C 98 % 1020,1 hPa 0,0 l/m 0 min 0 min 0,0 UV-I 0 W/m 0,0 km/h (0 Bft)
14.11.2013 22:26 6,0 C 5,0 C 98 % 1020,1 hPa 0,0 l/m 0 min 0 min 0,0 UV-I 0 W/m 0,0 km/h (0 Bft)
14.11.2013 22:28 6,0 C 5,0 C 98 % 1020,2 hPa 0,0 l/m 0 min 0 min 0,0 UV-I 0 W/m 0,0 km/h (0 Bft)
14.11.2013 22:30 6,0 C 5,0 C 98 % 1020,2 hPa 0,0 l/m 0 min 0 min 0,0 UV-I 0 W/m 0,0 km/h (0 Bft)
14.11.2013 22:32 6,0 C 5,0 C 98 % 1020,3 hPa 0,0 l/m 0 min 0 min 0,0 UV-I 0 W/m 0,0 km/h (0 Bft)
14.11.2013 22:34 6,0 C 5,0 C 98 % 1020,2 hPa 0,0 l/m 0 min 0 min 0,0 UV-I 0 W/m 0,0 km/h (0 Bft)
14.11.2013 22:36 6,0 C 5,0 C 98 % 1020,2 hPa 0,0 l/m 0 min 0 min 0,0 UV-I 0 W/m 0,0 km/h (0 Bft)
14.11.2013 22:38 6,0 C 5,0 C 98 % 1020,2 hPa 0,0 l/m 0 min 0 min 0,0 UV-I 0 W/m 0,0 km/h (0 Bft)
14.11.2013 22:40 6,0 C 5,0 C 98 % 1020,2 hPa 0,0 l/m 0 min 0 min 0,0 UV-I 0 W/m 0,0 km/h (0 Bft)
14.11.2013 22:42 6,0 C 5,0 C 98 % 1020,2 hPa 0,0 l/m 0 min 0 min 0,0 UV-I 0 W/m 0,0 km/h (0 Bft)
14.11.2013 22:44 6,0 C 5,0 C 98 % 1020,2 hPa 0,0 l/m 0 min 0 min 0,0 UV-I 0 W/m 0,0 km/h (0 Bft)
14.11.2013 22:46 6,0 C 5,0 C 98 % 1020,3 hPa 0,0 l/m 0 min 0 min 0,0 UV-I 0 W/m 0,0 km/h (0 Bft)
14.11.2013 22:48 6,0 C 5,0 C 98 % 1020,2 hPa 0,0 l/m 0 min 0 min 0,0 UV-I 0 W/m 0,0 km/h (0 Bft)
14.11.2013 22:50 6,0 C 5,0 C 98 % 1020,2 hPa 0,0 l/m 0 min 0 min 0,0 UV-I 0 W/m 0,0 km/h (0 Bft)
14.11.2013 22:52 6,0 C 5,0 C 98 % 1020,2 hPa 0,0 l/m 0 min 0 min 0,0 UV-I 0 W/m 0,0 km/h (0 Bft)
14.11.2013 22:54 5,9 C 5,0 C 98 % 1020,3 hPa 0,0 l/m 0 min 0 min 0,0 UV-I 0 W/m 0,0 km/h (0 Bft)
14.11.2013 22:56 5,9 C 5,0 C 98 % 1020,3 hPa 0,0 l/m 0 min 0 min 0,0 UV-I 0 W/m 0,0 km/h (0 Bft)
14.11.2013 22:58 5,9 C 5,0 C 98 % 1020,3 hPa 0,0 l/m 0 min 0 min 0,0 UV-I 0 W/m 0,0 km/h (0 Bft)
14.11.2013 23:00 5,9 C 5,0 C 98 % 1020,3 hPa 0,0 l/m 0 min 0 min 0,0 UV-I 0 W/m 0,0 km/h (0 Bft)
14.11.2013 23:02 5,9 C 5,0 C 98 % 1020,3 hPa 0,0 l/m 0 min 0 min 0,0 UV-I 0 W/m 0,0 km/h (0 Bft)
14.11.2013 23:04 5,9 C 5,0 C 98 % 1020,3 hPa 0,0 l/m 0 min 0 min 0,0 UV-I 0 W/m 0,0 km/h (0 Bft)
14.11.2013 23:06 5,9 C 5,0 C 98 % 1020,3 hPa 0,0 l/m 0 min 0 min 0,0 UV-I 0 W/m 0,0 km/h (0 Bft)
14.11.2013 23:08 5,9 C 5,0 C 98 % 1020,3 hPa 0,0 l/m 0 min 0 min 0,0 UV-I 0 W/m 0,0 km/h (0 Bft)
14.11.2013 23:10 5,9 C 5,0 C 98 % 1020,4 hPa 0,0 l/m 0 min 0 min 0,0 UV-I 0 W/m 0,0 km/h (0 Bft)
14.11.2013 23:12 5,9 C 5,0 C 98 % 1020,4 hPa 0,0 l/m 0 min 0 min 0,0 UV-I 0 W/m 0,0 km/h (0 Bft)
14.11.2013 23:14 5,9 C 5,0 C 98 % 1020,4 hPa 0,0 l/m 0 min 0 min 0,0 UV-I 0 W/m 0,0 km/h (0 Bft)
14.11.2013 23:16 5,9 C 5,0 C 98 % 1020,5 hPa 0,0 l/m 0 min 0 min 0,0 UV-I 0 W/m 0,0 km/h (0 Bft)
14.11.2013 23:18 5,9 C 5,0 C 98 % 1020,4 hPa 0,0 l/m 0 min 2 min 0,0 UV-I 0 W/m 0,0 km/h (0 Bft)
14.11.2013 23:20 5,9 C 5,0 C 98 % 1020,5 hPa 0,0 l/m 0 min 2 min 0,0 UV-I 0 W/m 0,0 km/h (0 Bft)
14.11.2013 23:22 5,9 C 5,0 C 98 % 1020,5 hPa 0,0 l/m 0 min 2 min 0,0 UV-I 0 W/m 0,0 km/h (0 Bft)
14.11.2013 23:24 5,9 C 5,0 C 98 % 1020,4 hPa 0,0 l/m 0 min 0 min 0,0 UV-I 0 W/m 0,0 km/h (0 Bft)
14.11.2013 23:26 5,9 C 5,0 C 98 % 1020,5 hPa 0,0 l/m 0 min 0 min 0,0 UV-I 0 W/m 0,0 km/h (0 Bft)
14.11.2013 23:28 5,9 C 5,0 C 98 % 1020,5 hPa 0,0 l/m 0 min 2 min 0,0 UV-I 0 W/m 0,0 km/h (0 Bft)
14.11.2013 23:30 5,9 C 5,0 C 98 % 1020,5 hPa 0,0 l/m 0 min 0 min 0,0 UV-I 0 W/m 0,0 km/h (0 Bft)
14.11.2013 23:32 5,9 C 5,0 C 98 % 1020,5 hPa 0,0 l/m 0 min 0 min 0,0 UV-I 0 W/m 0,0 km/h (0 Bft)
14.11.2013 23:34 5,9 C 5,0 C 98 % 1020,6 hPa 0,0 l/m 0 min 0 min 0,0 UV-I 0 W/m 0,0 km/h (0 Bft)
14.11.2013 23:36 5,9 C 5,0 C 98 % 1020,5 hPa 0,0 l/m 0 min 0 min 0,0 UV-I 0 W/m 0,0 km/h (0 Bft)
14.11.2013 23:38 5,9 C 5,0 C 98 % 1020,6 hPa 0,0 l/m 0 min 0 min 0,0 UV-I 0 W/m 0,0 km/h (0 Bft)
14.11.2013 23:40 5,9 C 5,0 C 98 % 1020,5 hPa 0,0 l/m 0 min 0 min 0,0 UV-I 0 W/m 0,0 km/h (0 Bft)
14.11.2013 23:42 5,9 C 5,0 C 98 % 1020,6 hPa 0,0 l/m 0 min 2 min 0,0 UV-I 0 W/m 0,0 km/h (0 Bft)
14.11.2013 23:44 5,9 C 5,0 C 98 % 1020,6 hPa 0,0 l/m 0 min 2 min 0,0 UV-I 0 W/m 0,0 km/h (0 Bft)
14.11.2013 23:46 5,9 C 5,0 C 98 % 1020,6 hPa 0,0 l/m 0 min 2 min 0,0 UV-I 0 W/m 0,0 km/h (0 Bft)
14.11.2013 23:48 5,9 C 5,0 C 98 % 1020,6 hPa 0,0 l/m 0 min 0 min 0,0 UV-I 0 W/m 0,0 km/h (0 Bft)
14.11.2013 23:50 5,9 C 5,0 C 98 % 1020,7 hPa 0,0 l/m 0 min 2 min 0,0 UV-I 0 W/m 0,0 km/h (0 Bft)
14.11.2013 23:52 5,9 C 5,0 C 98 % 1020,7 hPa 0,0 l/m 0 min 2 min 0,0 UV-I 0 W/m 0,0 km/h (0 Bft)
14.11.2013 23:54 5,9 C 5,0 C 98 % 1020,7 hPa 0,0 l/m 0 min 2 min 0,0 UV-I 0 W/m 0,0 km/h (0 Bft)
14.11.2013 23:56 5,9 C 5,0 C 98 % 1020,8 hPa 0,0 l/m 0 min 2 min 0,0 UV-I 0 W/m 0,0 km/h (0 Bft)
14.11.2013 23:58 5,9 C 5,0 C 98 % 1020,8 hPa 0,0 l/m 0 min 2 min 0,0 UV-I 0 W/m 0,0 km/h (0 Bft)
_ Min-Zeit 01:38 07:20 00:00 14:50 - - - - - 00:08
Minimum _ 0,8 C -0,6 C 98 % 1017,4 hPa - - - - - 0,0 km/h (0 Bft)
_ Max-Zeit 21:14 14:38 03:32 00:02 02:26 00:00 02:24 00:00 11:08 00:52
Maximum _ 6,0 C 5,0 C 99 % 1027,4 hPa 0,2 l/m 0 min 2 min 0,0 UV-I 97 W/m 15,4 km/h
S-SO (3 Bft)
Durchschnitt _ 3,7 C 3,0 C 98 % 1020,5 hPa #0,8 l/m #0 min. #2:50 h 0,0 UV-I 35 W/m 3,2 km/h (1 Bft)
© 2013 W. Hausmann